GFSNE_500_rhum_003.txt.gz
RH
64 59 48 42 35 26 27 30 20 17 17 17 13 10 9 8 7 7 6 5 5 4 3 3 5 10 12 11 11 11 11 10 9 8 6 4 3 3
64 55 45 34 28 33 28 18 15 14 16 12 10 9 8 8 7 5 4 3 2 4 8 12 17 18 19 19 17 14 13 12 10 12 12 10 11 10
61 48 35 34 36 28 20 17 15 13 10 9 8 8 7 5 3 2 3 7 13 17 22 26 26 24 16 10 9 10 11 10 9 10 9 8 8 8
50 36 37 38 31 21 15 12 10 9 8 8 6 4 3 5 7 8 12 16 18 20 25 27 28 16 20 20 17 15 13 13 12 14 16 19 23 20
39 40 37 26 19 15 12 11 10 8 7 5 3 4 6 7 9 12 14 14 17 22 26 23 17 26 48 63 40 24 21 25 26 20 18 18 18 19
41 31 21 16 14 13 13 12 10 7 4 4 6 6 10 13 12 13 13 15 13 14 14 24 65 86 75 67 55 51 46 33 34 25 18 17 13 13
24 18 15 16 16 16 14 11 5 4 5 6 9 11 11 9 10 10 9 9 13 28 46 84 84 76 79 77 68 54 33 12 9 8 5 4 5 6
18 16 18 20 19 16 9 4 5 6 8 13 11 8 6 7 9 16 30 54 81 100 86 88 84 87 75 63 24 4 6 31 61 71 67 59 46 23
19 21 22 20 15 8 3 6 6 10 14 14 11 12 19 38 64 86 100 100 100 100 70 94 92 74 56 36 20 18 46 66 81 97 100 100 99 92
25 25 20 16 7 4 6 7 12 14 16 17 19 52 75 82 87 95 94 100 100 100 76 97 88 98 75 54 40 54 65 81 96 94 97 99 98 100
26 21 14 5 5 6 7 14 17 20 24 52 68 77 88 94 93 99 100 100 100 99 94 100 100 99 100 82 59 53 68 90 93 96 100 100 87 71
22 13 5 6 7 7 14 16 24 56 76 81 90 94 95 100 98 95 96 99 100 100 97 100 100 91 100 94 81 69 84 91 96 100 100 84 78 30
13 5 7 7 7 13 13 30 77 79 84 88 90 96 98 100 100 100 100 95 89 96 98 95 99 80 74 96 94 84 95 100 100 100 98 84 70 58
5 7 8 7 13 13 23 79 87 85 90 92 94 94 98 100 100 100 100 98 94 90 100 100 99 99 95 93 100 100 96 79 97 100 100 100 42 67
7 9 7 14 13 29 77 85 85 84 87 95 97 99 100 97 100 100 100 100 100 96 100 100 88 60 82 98 93 92 87 86 98 69 76 56 38 21
10 7 14 13 56 79 76 80 81 86 94 98 100 98 95 94 98 100 100 100 100 100 100 98 52 91 74 84 96 100 100 98 100 100 39 3 71 39
8 12 10 72 84 83 85 87 87 89 92 89 83 64 68 90 94 100 100 100 95 100 99 54 58 60 74 97 100 96 100 100 92 86 86 2 79 97
10 8 58 80 88 93 93 93 88 73 45 26 20 18 21 25 67 100 100 100 96 100 86 53 60 75 92 94 100 100 100 82 99 100 100 46 22 96
8 64 83 94 94 92 82 52 40 35 30 22 15 12 15 20 25 53 98 100 97 98 100 76 45 93 100 100 100 100 100 90 91 99 100 100 74 36
60 88 98 90 69 49 44 45 49 49 49 38 27 21 19 23 30 28 69 93 100 100 98 97 61 64 98 100 100 100 100 100 96 100 100 75 100 46
91 96 68 51 48 46 47 43 45 52 56 57 44 29 26 26 30 39 45 54 94 100 97 98 98 47 79 100 98 100 100 100 100 100 100 80 76 70
79 48 44 41 39 32 37 56 61 67 70 66 51 37 32 36 45 54 54 56 60 100 98 98 100 70 56 100 100 98 98 100 100 100 100 95 98 66
40 40 42 30 30 46 52 54 51 48 53 62 63 68 72 74 69 58 51 48 46 61 100 98 100 95 47 80 94 87 91 97 100 100 100 100 89 56

GFSNE_500_rhum_006.txt.gz
RH
80 60 60 65 72 71 60 45 45 41 30 25 21 19 19 18 16 14 13 11 9 8 6 4 3 4 5 5 4 5 6 6 6 6 5 4 5 3
66 61 72 77 74 58 47 51 37 23 24 22 22 21 16 13 12 10 8 5 3 3 3 4 6 8 10 14 15 15 17 17 17 16 14 13 12 11
64 78 83 75 58 55 49 25 21 20 20 15 12 9 7 8 8 4 3 4 5 6 8 11 12 12 13 15 18 18 18 18 15 11 10 12 12 10
75 82 73 59 59 34 25 22 20 16 13 8 7 7 6 4 4 5 6 7 7 7 8 10 11 13 16 15 14 15 15 14 10 18 22 28 25 18
80 70 62 48 28 24 21 14 13 12 12 10 6 3 4 5 6 8 4 4 6 7 7 9 11 12 13 13 12 11 11 25 37 46 44 48 47 30
66 63 35 27 26 24 18 15 13 11 10 5 4 6 6 8 10 23 40 42 40 32 31 31 22 25 27 30 44 57 58 63 71 72 68 59 27 12
53 30 29 27 24 21 16 12 10 8 4 5 6 7 11 19 49 58 65 74 96 78 72 88 87 92 94 83 74 69 57 45 36 26 16 7 8 8
32 30 31 29 24 17 12 10 6 5 7 7 8 18 51 53 63 75 80 88 94 87 81 100 87 96 90 92 86 80 60 30 16 10 11 35 53 52
33 32 26 23 18 14 10 5 6 7 9 9 35 59 54 62 77 84 92 98 89 80 87 100 93 100 96 97 88 92 63 34 38 62 81 89 82 85
33 30 24 20 15 10 5 6 7 9 12 57 67 64 65 73 74 78 82 98 100 90 76 98 96 99 100 99 88 96 64 47 70 83 100 90 79 95
32 25 19 15 9 5 6 7 9 12 57 75 67 70 79 83 83 77 80 87 99 100 89 98 98 98 100 80 72 84 73 62 76 90 88 88 91 100
23 18 16 8 5 9 8 9 12 56 77 79 81 86 86 90 87 82 80 82 82 97 96 98 100 75 99 77 95 97 89 91 92 90 90 97 100 100
19 16 6 6 10 8 10 22 64 71 77 77 82 88 90 88 90 90 87 84 80 93 89 89 52 40 44 81 98 90 88 94 91 86 95 97 92 100
15 5 6 11 8 8 22 81 74 76 83 83 85 88 87 88 94 95 93 91 82 90 94 57 49 67 84 88 87 89 89 93 96 98 98 94 16 36
4 7 12 8 7 17 76 72 84 89 83 84 85 77 69 58 51 88 95 96 93 94 88 39 47 65 80 85 88 91 100 100 100 99 90 57 43 59
6 12 9 7 22 73 75 82 83 81 75 60 38 24 16 15 17 28 85 100 100 100 81 47 49 65 63 72 89 100 100 100 100 99 62 26 94 52
10 11 8 42 84 87 85 72 61 39 31 30 30 25 18 12 12 18 31 97 99 100 91 42 59 63 78 91 97 100 100 100 100 100 73 37 99 28
12 12 64 85 90 73 48 43 40 40 38 36 36 37 28 17 15 19 23 55 100 97 100 46 64 78 84 97 100 100 100 100 100 100 100 96 80 53
12 69 84 81 46 42 43 42 40 36 36 38 43 45 42 24 21 21 27 35 92 95 100 96 50 81 94 87 98 99 100 100 100 99 100 94 64 89
57 88 65 41 40 38 32 39 51 53 53 54 58 58 46 32 29 26 34 50 62 100 100 100 57 65 86 92 100 99 100 100 88 100 100 98 58 100
89 47 42 44 31 30 39 36 33 34 40 45 54 54 56 62 58 58 53 53 53 95 100 100 96 35 78 81 96 100 100 100 99 100 100 75 65 99
43 51 49 27 33 31 29 34 41 37 42 46 49 52 57 60 60 58 52 45 45 54 100 100 95 40 69 82 100 100 100 99 99 100 78 81 98 92
54 40 24 34 34 28 36 66 74 70 58 55 62 70 76 77 66 60 61 56 44 39 80 100 96 56 35 82 90 100 100 100 100 90 71 71 81 96

GFSNE_500_rhum_009.txt.gz
RH
74 80 85 78 63 65 64 66 65 50 41 32 26 18 14 10 9 9 9 8 7 5 4 3 2 3 3 4 4 4 4 4 4 4 4 3 3 3
79 75 57 60 64 71 72 69 61 44 30 23 16 13 13 13 12 9 7 5 3 3 3 3 4 4 4 4 4 5 6 7 7 7 8 8 7 6
50 50 59 68 81 76 70 59 38 31 25 16 13 13 11 9 8 6 3 3 4 4 6 8 17 21 6 3 4 5 5 8 13 15 14 17 17 12
52 65 79 81 76 68 51 36 32 29 23 18 15 12 10 6 4 4 5 6 9 14 40 46 47 50 40 26 12 8 9 11 13 14 16 18 27 25
68 84 79 74 61 43 37 33 30 26 22 16 12 11 4 4 5 5 13 39 52 54 56 57 66 61 66 66 62 72 65 27 15 14 15 16 19 21
83 77 66 52 43 38 33 30 20 16 15 15 10 3 4 6 12 37 46 59 68 66 63 69 70 72 67 63 71 74 76 70 74 82 76 62 55 57
73 59 48 44 38 34 25 18 16 18 14 6 3 5 6 19 56 53 58 73 84 66 68 90 77 81 74 75 78 82 78 84 94 81 65 61 50 43
54 50 43 39 33 24 20 18 17 8 4 4 6 5 14 55 56 58 70 78 92 80 69 100 80 90 79 80 69 65 80 98 99 92 61 21 17 21
52 42 36 28 23 22 18 13 5 4 7 7 5 16 54 56 56 71 82 82 86 84 76 94 92 97 87 73 70 78 68 95 100 66 38 56 66 60
40 34 26 24 19 17 11 3 3 8 7 8 25 66 64 66 65 67 74 84 88 91 67 90 81 90 45 46 40 53 85 95 89 51 71 82 93 93
32 28 23 19 17 9 3 4 8 6 14 53 65 65 66 66 64 70 76 79 82 96 80 87 75 49 22 30 44 46 99 96 78 66 76 89 83 75
24 23 20 18 7 3 5 8 5 18 75 75 73 75 73 73 71 68 64 76 74 93 89 94 46 32 66 50 68 80 85 97 93 90 94 96 79 75
21 19 17 6 4 8 8 5 26 73 76 85 92 87 84 78 65 50 42 43 75 88 77 89 34 32 35 69 82 89 90 92 94 96 95 88 89 87
18 15 5 5 8 8 8 51 78 82 85 88 87 78 58 38 22 16 16 17 45 78 88 89 28 34 68 78 89 100 99 97 100 100 100 100 83 39
12 4 6 8 9 19 74 79 86 77 57 44 35 32 29 27 25 16 10 16 22 68 91 87 30 45 58 78 90 78 96 100 100 100 100 56 48 96
4 6 8 10 31 76 80 60 38 35 35 34 32 29 26 28 28 24 14 15 24 75 92 91 39 60 71 80 70 95 100 90 100 98 100 100 79 80
6 8 11 42 85 70 42 37 36 31 28 28 32 35 34 33 33 26 18 17 20 81 100 93 48 68 87 97 90 90 100 100 100 100 98 86 69 35
8 15 62 72 44 42 38 31 28 30 31 33 35 41 49 49 48 34 23 17 22 60 100 100 47 70 83 88 99 100 100 100 100 100 98 83 73 63
24 66 48 43 46 32 29 29 31 34 32 34 41 51 58 54 43 33 30 27 29 41 96 100 82 56 85 100 95 97 100 100 96 100 94 92 94 75
52 42 49 49 29 31 28 37 53 50 37 40 46 48 53 55 57 59 59 57 50 48 82 100 100 52 67 91 100 99 95 100 100 77 76 89 92 93
39 35 25 22 33 30 34 53 60 64 65 62 69 78 81 82 77 64 59 48 42 46 70 100 100 70 63 89 99 99 100 100 100 100 100 95 92 98
20 19 18 23 32 30 35 48 46 48 63 72 74 81 76 64 57 55 56 58 44 39 60 98 100 59 57 86 98 100 100 98 92 100 100 100 87 91
16 18 20 23 26 28 32 37 40 57 78 81 89 92 92 80 67 60 54 40 44 36 51 97 100 52 45 81 93 100 100 92 77 91 97 94 97 85

GFSNE_500_rhum_012.txt.gz
RH
29 43 59 66 69 60 45 47 41 32 45 48 44 39 36 32 23 10 8 7 6 6 5 5 4 3 2 3 3 3 3 4 4 3 3 3 3 3
60 66 67 66 47 44 46 46 56 48 37 41 40 35 25 15 11 11 9 7 6 4 3 2 2 3 7 20 30 34 33 31 19 9 7 5 4 4
69 70 59 48 49 48 62 55 51 47 42 39 30 22 16 16 16 12 9 5 2 3 4 4 18 32 40 50 44 39 37 40 37 26 8 5 5 4
72 64 54 50 69 64 55 53 49 46 33 22 18 14 11 11 10 7 3 3 5 5 28 44 42 55 56 45 48 52 56 56 56 52 44 31 15 9
58 52 62 72 61 57 54 51 40 28 23 16 12 11 10 8 5 3 4 5 14 48 47 46 62 64 57 51 49 50 56 64 69 76 76 70 59 44
59 72 67 59 56 54 47 32 25 20 16 14 12 12 7 3 4 4 5 46 58 53 62 64 62 60 58 45 45 54 62 76 78 80 91 93 85 69
72 63 58 56 53 35 27 23 18 17 16 14 11 5 3 5 4 14 59 59 82 57 64 81 66 65 58 53 62 69 61 52 64 61 56 85 98 100
62 61 58 44 30 26 22 20 17 15 14 7 4 4 5 3 32 64 64 64 75 82 66 89 67 81 68 74 73 32 14 15 24 36 58 65 97 92
63 52 34 30 25 22 18 16 16 9 4 4 6 5 4 43 60 67 71 68 74 74 68 98 80 84 77 66 22 18 19 23 23 73 84 70 82 48
40 35 33 25 21 18 15 12 6 4 6 7 6 18 58 62 62 66 67 70 81 76 60 87 75 86 73 27 22 25 38 71 100 93 84 80 53 56
36 31 25 20 18 14 9 4 4 6 8 11 50 66 66 70 63 62 65 59 52 45 56 79 73 95 51 23 55 77 85 81 85 98 93 86 85 82
28 24 22 16 13 7 3 4 6 10 45 84 80 78 76 75 68 62 54 42 28 17 22 77 84 83 32 41 72 72 82 88 89 94 99 100 100 100
25 21 15 12 6 4 4 6 25 72 79 80 70 49 37 33 29 26 22 19 18 11 12 60 95 70 25 64 74 75 69 83 98 100 100 98 100 79
20 15 13 5 4 5 13 49 72 66 46 38 38 38 38 35 31 28 27 26 24 15 12 44 96 58 40 57 76 84 100 99 91 94 99 100 99 88
15 12 4 4 6 32 56 52 36 36 34 28 27 27 29 29 30 32 34 28 27 17 11 28 97 67 45 55 78 83 70 100 100 100 100 100 94 100
10 4 5 8 42 47 34 36 33 25 25 26 25 26 28 30 37 40 47 43 32 24 14 16 99 81 57 66 70 88 94 80 83 100 100 100 90 63
4 5 8 44 37 38 38 27 26 29 39 32 30 36 44 48 52 44 45 40 28 23 40 34 76 92 63 76 99 98 88 94 100 100 100 100 81 88
5 9 42 31 29 27 29 28 34 51 53 55 46 43 47 52 57 60 61 61 40 29 37 51 93 98 59 65 62 93 100 99 100 100 100 94 88 100
8 40 24 18 18 24 27 29 47 47 46 51 68 67 78 86 78 80 73 60 56 44 39 51 96 100 62 65 87 77 100 100 100 100 100 84 88 80
31 17 14 16 19 24 27 31 42 43 47 66 77 77 81 79 72 64 55 57 59 52 42 47 97 97 56 67 100 100 100 100 97 100 99 81 81 90
15 16 21 23 24 27 30 34 40 50 61 73 85 96 98 94 89 67 57 48 41 46 40 51 98 84 55 83 100 100 96 97 95 100 89 81 91 90
18 25 28 32 34 37 42 48 56 63 66 87 100 100 100 96 92 82 65 47 37 37 37 88 95 52 52 81 100 93 76 86 100 99 91 85 80 80
26 31 32 34 37 45 56 69 76 74 78 91 100 100 100 100 92 70 53 46 35 34 49 99 80 44 51 92 98 84 71 93 100 100 98 77 60 74

GFSNE_500_rhum_015.txt.gz
RH
33 26 25 36 59 62 61 61 60 51 35 52 52 45 40 38 40 36 24 14 11 10 9 8 6 6 6 4 3 2 3 3 4 5 5 3 3 3
30 34 58 67 68 65 66 53 37 43 47 47 42 42 43 36 24 17 12 9 7 7 6 6 5 3 3 3 3 10 30 35 44 48 36 30 26 23
53 81 80 70 70 57 39 54 60 51 44 44 44 35 23 17 14 11 8 7 7 6 4 3 3 3 3 13 34 44 54 46 36 43 48 48 44 39
90 83 75 68 42 55 65 57 51 48 47 39 26 20 16 14 12 10 9 7 3 3 4 4 3 21 39 44 56 58 53 47 54 57 60 57 54 54
87 77 53 48 68 64 56 51 50 39 28 22 18 15 13 10 8 6 3 3 4 5 4 19 42 53 52 60 58 57 60 64 58 55 60 64 60 50
65 49 69 71 63 56 52 41 30 24 21 17 14 8 7 7 4 3 3 5 5 26 56 51 51 53 64 60 60 62 56 51 56 50 37 18 16 43
63 76 70 61 56 44 32 26 23 20 17 11 7 8 4 3 3 5 5 8 65 68 55 78 58 66 67 64 60 69 69 65 32 18 15 16 15 16
78 69 61 50 36 28 25 23 21 14 9 10 8 3 3 4 5 11 49 59 64 97 54 83 64 75 68 69 72 79 72 21 15 18 12 21 45 52
64 58 43 32 28 27 24 18 10 13 11 4 3 3 6 28 49 59 67 71 79 78 61 72 69 66 67 75 81 76 26 25 37 52 48 53 78 89
52 36 30 30 27 22 11 10 14 8 3 4 10 29 52 57 54 59 62 66 76 72 55 52 36 28 37 68 81 48 32 47 66 74 81 85 78 69
36 31 28 24 19 13 11 11 5 3 9 37 50 52 50 44 31 22 23 21 25 32 29 25 19 18 21 54 78 29 50 56 65 64 75 81 89 100
27 26 23 15 10 11 9 4 3 13 46 48 39 32 30 30 28 26 26 26 26 29 26 22 20 13 35 68 71 38 59 65 62 73 77 90 93 86
24 18 12 10 11 8 4 4 16 43 35 30 32 28 23 22 22 22 22 21 20 20 18 16 21 16 13 100 67 36 59 80 82 85 100 100 100 89
15 11 10 10 7 4 4 22 40 32 34 26 24 27 27 24 23 25 30 30 33 26 29 20 20 16 18 100 53 63 77 87 91 94 100 99 99 100
8 9 8 5 4 5 30 31 27 26 24 26 36 41 39 36 35 39 52 52 54 41 40 35 21 17 31 93 50 62 82 100 100 100 100 100 100 98
8 6 4 4 7 34 21 16 19 23 27 34 38 41 48 55 59 62 65 62 58 64 60 33 21 15 39 90 47 66 88 91 92 90 87 100 99 100
6 4 5 11 30 16 15 16 21 27 33 37 41 46 58 67 73 72 69 61 66 57 64 66 39 21 44 92 57 56 89 100 94 87 93 100 98 84
4 6 13 21 15 18 20 23 27 33 38 44 54 61 77 84 87 96 85 61 48 54 58 48 44 47 84 83 42 54 94 99 94 100 97 92 96 78
6 15 19 18 22 24 27 32 40 49 58 61 68 81 96 100 99 96 88 75 59 46 46 41 38 69 100 98 49 60 84 96 91 100 100 80 70 97
14 18 20 24 28 30 36 46 59 70 70 69 76 87 91 96 99 100 96 82 69 50 40 36 46 100 99 65 86 95 97 98 90 86 82 68 83 100
18 21 27 29 32 41 53 61 68 74 63 70 80 94 100 96 93 84 68 53 42 33 34 38 97 100 59 75 100 94 73 87 82 100 76 74 87 100
19 28 32 38 47 52 57 56 49 45 52 69 88 100 98 92 93 87 76 68 46 35 37 87 100 54 56 93 96 82 68 90 98 98 85 67 88 100
28 31 39 46 51 54 51 39 38 36 44 68 93 100 87 99 100 97 62 53 43 40 97 100 69 46 72 100 97 66 58 79 100 100 96 87 99 100

GFSNE_500_rhum_018.txt.gz
RH
66 60 55 45 35 30 44 55 52 47 55 45 46 54 48 43 39 37 34 25 19 16 14 12 9 8 7 6 5 5 4 4 3 2 2 2 2 3
60 62 57 37 49 69 72 72 66 45 29 49 49 42 40 36 29 21 17 14 12 8 6 6 5 4 4 3 2 2 2 3 4 4 8 14 17 21
65 72 46 71 86 84 74 52 47 63 54 47 41 35 26 20 16 13 9 7 6 5 5 4 4 3 3 3 3 3 5 29 39 46 52 61 64 49
90 51 84 90 86 64 44 66 64 52 44 37 26 19 15 12 9 8 6 6 5 4 3 3 3 4 4 4 21 41 43 58 68 68 63 55 51 52
64 93 94 81 52 58 71 59 49 41 29 22 17 14 10 7 7 6 5 4 3 3 3 4 6 14 46 53 50 49 55 73 70 65 64 64 59 59
98 98 68 54 75 68 55 47 35 27 23 19 13 9 7 6 5 4 3 4 7 15 23 43 48 56 60 61 60 62 68 76 71 67 64 58 48 27
93 57 72 77 60 53 43 30 25 21 15 10 8 7 6 6 4 4 11 20 47 54 46 72 52 65 68 64 64 66 70 71 66 68 66 40 21 21
62 84 71 60 50 37 28 26 18 12 9 8 8 7 5 3 6 20 33 37 43 64 46 62 58 71 61 65 61 57 57 70 70 68 35 24 27 42
83 63 59 44 33 29 24 15 9 8 8 7 6 4 4 19 35 33 34 30 27 26 20 19 39 57 56 50 48 39 31 58 74 58 26 39 55 63
61 53 37 32 29 21 13 11 9 6 6 5 4 6 27 35 24 20 21 21 23 24 22 18 24 27 25 23 22 20 19 41 75 33 37 55 54 73
46 36 33 28 23 16 11 7 6 6 4 4 17 32 24 24 19 15 16 17 17 20 21 14 21 19 21 26 19 15 16 48 66 39 52 56 57 68
36 34 29 22 13 8 6 6 7 4 7 29 24 24 21 20 22 25 25 22 22 29 40 20 24 19 20 28 21 14 16 61 55 43 60 61 71 77
34 27 18 11 7 6 7 5 4 12 22 14 17 19 22 28 33 36 41 36 37 43 51 38 34 31 19 23 29 21 15 56 47 50 66 71 82 84
23 12 9 8 6 6 4 5 17 15 13 15 19 26 32 38 40 44 51 54 57 49 55 62 47 39 34 30 21 38 31 56 45 65 78 91 100 98
10 8 7 7 6 4 7 16 14 17 19 23 30 36 43 52 56 56 73 69 75 74 62 47 51 44 34 21 18 50 71 86 45 73 86 91 98 94
8 8 7 5 4 9 16 16 20 24 28 36 47 56 58 62 71 76 87 91 86 87 85 49 46 48 36 26 22 62 93 67 82 96 100 100 100 91
10 6 5 5 11 16 20 21 24 33 44 48 42 45 58 74 97 97 94 90 85 74 70 60 49 48 34 29 82 90 70 62 69 86 94 93 100 70
7 4 5 12 17 22 24 28 35 38 31 27 34 51 73 91 91 94 90 84 80 79 60 56 39 46 45 72 56 58 73 91 88 64 67 70 83 86
4 6 14 18 23 25 31 40 40 28 24 27 38 66 87 83 77 92 95 83 60 58 54 38 34 41 91 100 49 56 76 80 59 84 89 65 60 97
6 16 18 24 27 34 41 39 31 28 32 33 45 72 76 72 91 96 92 69 52 38 33 34 64 100 98 86 76 74 52 75 95 92 100 63 61 76
17 18 24 29 36 41 40 35 34 45 49 36 43 54 59 72 81 67 55 55 44 38 52 93 100 83 54 75 99 100 86 73 98 82 93 88 72 89
19 25 29 36 40 43 42 40 43 59 63 40 41 43 60 62 45 38 41 50 74 98 100 100 81 55 70 98 100 88 76 100 62 62 71 80 100 100
25 27 34 38 41 46 49 43 49 61 77 54 39 60 87 68 65 88 100 100 100 100 100 82 91 100 100 99 94 63 69 100 93 100 100 100 96 98

GFSNE_500_rhum_021.txt.gz
RH
85 82 80 76 60 50 49 41 28 27 48 74 62 54 53 52 48 41 35 29 21 15 12 11 10 10 9 8 7 6 5 4 4 4 4 4 4 4
79 81 75 60 54 59 45 43 66 66 59 53 48 54 50 43 36 28 20 16 14 12 10 9 9 9 8 6 4 4 3 3 3 3 3 3 3 3
82 78 81 73 59 48 70 85 85 63 47 55 54 45 38 29 21 17 15 13 11 10 10 9 8 5 4 3 3 4 3 3 4 5 10 19 24 24
95 95 97 67 56 88 89 79 56 71 64 50 42 33 23 20 16 14 12 11 10 9 7 5 4 3 5 11 23 26 37 42 50 56 56 61 62 63
100 92 75 84 100 91 65 66 74 59 48 38 27 22 19 16 14 12 10 8 7 5 3 4 9 20 28 32 35 42 47 52 62 66 61 65 73 74
74 62 96 99 84 62 77 69 54 44 33 26 23 18 12 7 7 8 7 6 4 4 14 23 30 35 34 30 37 43 46 55 66 70 69 71 72 74
98 100 98 70 75 76 59 50 38 30 28 23 14 9 8 9 9 6 4 4 15 32 34 29 26 27 26 22 21 34 41 50 60 61 61 69 70 70
100 80 74 83 68 56 46 34 34 29 20 13 10 10 7 5 4 4 8 20 22 24 15 14 19 20 23 26 23 23 40 50 51 49 43 51 65 67
70 87 80 61 52 40 36 34 24 13 10 7 8 6 5 4 6 14 15 11 14 15 13 13 17 15 17 20 24 22 26 39 40 34 35 31 54 66
84 66 54 45 37 37 31 21 10 8 7 7 6 4 4 11 13 11 13 15 19 24 26 22 25 23 23 24 22 20 19 21 21 18 16 20 47 55
58 50 39 35 33 24 13 9 8 8 6 4 4 8 13 13 15 17 23 28 34 40 46 32 35 32 37 49 40 25 18 17 17 18 16 18 63 46
44 38 33 26 16 11 9 8 8 7 4 5 14 15 17 20 27 33 37 40 43 42 54 45 44 43 33 61 67 43 24 16 15 17 17 27 67 42
37 32 22 15 14 11 9 8 6 4 8 15 19 21 29 38 44 44 49 50 58 60 69 58 52 47 42 40 64 50 45 26 14 15 17 58 58 44
34 23 18 15 10 9 7 4 4 12 17 19 24 30 32 31 35 50 71 78 89 82 74 74 63 53 48 43 55 60 44 31 20 15 22 75 46 58
26 18 12 11 9 6 4 5 15 18 19 27 27 23 24 28 45 68 87 92 99 100 93 75 64 55 58 47 42 53 36 34 16 17 74 53 51 68
22 15 14 10 6 4 9 16 19 22 28 23 22 30 30 41 74 88 82 77 77 81 93 71 69 53 53 39 36 44 40 43 56 73 48 52 72 82
23 16 9 6 4 11 17 19 26 30 25 32 40 33 37 53 68 71 75 87 84 63 56 60 65 55 38 36 72 96 100 94 70 68 68 85 99 92
15 10 5 4 14 19 22 30 32 29 37 47 40 29 37 42 48 63 67 64 61 56 38 39 34 38 45 68 75 90 86 95 97 78 66 72 100 77
11 4 6 15 19 22 32 35 34 39 45 52 35 48 58 47 35 36 41 46 51 39 36 60 91 100 100 86 60 65 90 94 88 93 88 70 55 45
4 8 14 19 24 32 36 39 38 44 45 56 37 73 66 41 45 58 68 82 94 100 100 86 69 60 57 64 79 83 46 56 72 76 96 81 50 42
11 15 22 25 31 36 39 42 44 45 46 62 35 76 85 92 97 97 99 93 92 85 79 73 77 76 88 97 100 93 73 64 80 79 86 84 74 84
19 23 26 32 37 42 45 45 46 48 51 67 35 63 90 92 97 98 96 96 89 80 85 97 97 100 100 100 95 86 90 98 84 84 98 96 91 100
25 29 35 43 52 55 55 49 47 51 56 70 46 36 85 95 96 95 97 84 82 91 98 100 100 98 95 77 51 56 74 83 68 77 84 94 88 96

GFSNE_500_rhum_024.txt.gz
RH
65 64 58 56 58 53 52 52 53 50 43 51 79 85 72 60 53 49 51 48 42 36 28 22 18 16 15 14 13 12 12 11 10 7 4 4 3 3
64 62 61 68 66 68 66 72 69 54 43 58 74 65 56 60 56 49 43 35 26 21 20 17 15 14 12 12 11 8 6 4 3 3 3 2 2 2
67 69 77 84 86 88 88 86 66 63 73 70 55 51 54 50 44 36 27 22 21 18 14 12 12 12 9 6 5 4 3 3 3 4 7 14 15 12
85 98 100 99 100 100 100 76 84 87 68 50 59 57 48 39 29 24 22 19 13 10 10 11 8 6 6 4 3 3 5 10 20 25 26 31 31 32
91 82 99 100 100 98 95 94 88 63 75 67 53 43 32 27 24 21 13 9 9 10 9 6 4 3 4 8 15 22 27 27 26 26 28 39 42 42
85 100 100 99 95 94 94 70 70 80 63 50 37 28 27 24 15 10 9 11 13 8 6 5 6 13 15 15 14 14 14 18 19 24 23 47 52 54
99 96 94 95 96 75 70 84 70 55 40 30 27 23 15 11 9 10 12 10 4 5 7 12 12 11 12 13 14 14 12 10 10 16 21 47 52 55
95 91 95 73 67 84 80 62 47 35 30 25 16 12 11 10 10 9 7 4 7 14 13 13 16 17 22 24 28 25 20 16 11 10 20 32 50 53
86 68 66 83 87 68 55 40 35 29 21 16 14 11 11 9 5 4 8 13 14 18 20 19 26 29 35 37 38 33 29 23 16 11 15 24 40 48
60 76 92 74 63 48 38 36 27 20 15 12 12 9 5 4 6 13 14 16 21 26 33 16 24 26 28 44 50 48 41 30 21 16 15 22 25 28
91 78 65 57 47 41 39 33 22 17 16 14 8 4 5 13 14 16 19 18 19 23 44 25 33 37 43 57 74 80 65 43 35 28 24 20 23 23
66 58 53 46 44 42 32 25 25 20 12 6 4 11 16 19 21 19 20 26 28 28 52 33 45 58 45 74 98 100 92 64 45 36 27 22 25 21
58 53 50 48 41 30 28 26 16 10 4 6 17 19 25 23 24 32 32 30 33 43 70 52 39 45 50 57 73 87 72 54 47 44 30 24 25 22
53 50 42 36 34 29 20 14 9 4 11 17 21 24 25 37 37 31 34 39 47 52 72 71 50 45 44 62 55 66 67 53 49 47 30 24 20 20
40 37 32 27 20 18 16 7 4 13 16 23 25 32 40 38 37 50 42 38 54 75 78 59 40 45 57 43 39 49 41 50 37 31 21 21 40 36
27 25 23 21 20 14 6 6 14 17 24 28 36 44 42 41 63 25 24 32 39 48 53 40 39 41 35 36 50 58 51 42 30 44 84 76 58 53
28 27 26 21 12 6 9 14 17 24 28 35 40 46 38 70 50 32 34 36 35 38 42 40 40 55 74 78 92 85 92 95 96 78 59 73 63 50
25 21 15 9 5 12 16 19 25 30 35 41 46 45 46 74 80 84 84 85 86 90 94 100 100 100 90 73 82 97 96 81 93 73 56 66 100 78
14 9 5 7 15 19 25 29 32 36 42 45 53 42 49 77 80 84 85 85 91 83 74 84 93 88 81 72 77 65 85 86 100 100 88 65 88 93
4 4 11 16 23 27 31 35 39 40 44 46 57 42 42 76 82 86 81 78 80 84 90 91 89 90 93 100 100 99 51 54 60 89 80 81 70 70
4 15 23 26 31 35 42 48 49 46 49 50 59 41 33 68 84 84 86 67 64 79 94 96 100 98 100 100 99 86 68 73 68 72 78 87 93 97
18 28 29 34 41 49 58 58 53 50 48 50 58 44 34 44 76 86 87 88 79 77 99 100 98 97 100 91 93 78 71 69 71 58 58 70 77 94
28 31 40 48 55 66 72 63 56 55 51 52 60 57 38 32 45 68 88 94 93 97 97 100 100 99 95 92 64 51 50 44 38 40 46 63 87 98

GFSNE_500_rhum_027.txt.gz
RH
58 57 50 68 52 59 64 65 66 66 64 77 86 92 77 72 74 66 55 49 52 52 48 43 38 33 27 23 20 19 17 15 14 14 14 14 13 12
77 62 60 60 62 74 78 81 82 66 46 66 81 82 71 78 67 52 58 59 53 45 36 30 25 23 22 20 18 16 16 16 14 10 7 6 5 4
96 71 90 72 76 77 78 85 74 60 69 72 78 75 69 57 64 65 57 44 36 29 27 25 22 18 17 17 15 14 10 7 6 5 4 3 3 2
92 91 94 76 82 80 90 72 72 72 75 71 72 60 65 74 61 48 37 29 27 23 19 19 18 16 15 11 7 6 5 4 4 3 4 6 8 9
66 82 72 79 79 78 70 88 92 88 88 68 63 77 67 52 39 32 30 26 21 18 16 14 12 9 7 5 4 4 5 8 9 9 10 10 13 23
87 85 85 84 77 82 92 92 86 78 68 78 75 56 44 36 34 31 24 18 16 13 9 7 5 4 5 7 10 12 11 11 10 10 10 11 12 10
93 99 94 91 97 99 82 76 66 79 83 62 51 41 37 35 30 23 20 12 9 7 4 5 8 12 13 14 16 17 17 17 16 15 16 17 18 17
74 96 100 100 98 74 64 73 82 65 53 48 43 39 36 27 25 14 10 8 5 7 12 16 17 20 24 29 32 31 28 23 20 18 18 19 20 22
90 98 92 66 63 65 81 67 58 54 47 44 41 33 27 18 14 10 6 5 12 15 16 17 18 22 27 32 42 39 35 36 33 28 26 25 29 30
89 67 62 72 80 67 58 57 52 49 48 41 33 23 18 15 8 5 10 12 17 20 26 24 28 30 31 33 45 48 56 56 55 50 44 42 41 33
59 67 80 63 57 58 52 44 44 43 40 30 21 20 15 6 8 11 14 17 20 28 38 29 28 26 32 43 59 72 78 78 62 64 62 54 43 37
66 56 52 53 51 42 40 40 38 32 28 25 22 10 6 12 14 17 18 21 23 24 21 13 22 32 34 60 75 92 83 96 90 75 69 53 42 39
52 53 47 38 39 38 34 30 30 29 24 17 6 9 15 21 22 24 25 27 19 14 15 12 20 31 36 38 43 55 61 70 76 80 70 56 43 46
42 39 39 36 34 31 30 28 23 18 10 6 14 17 22 27 27 27 42 42 31 25 28 26 28 29 31 32 37 53 57 56 52 49 40 38 38 38
30 31 29 29 26 24 23 20 11 5 7 16 19 24 26 28 28 41 62 68 74 68 59 56 63 74 79 85 92 59 32 40 30 36 51 59 59 38
22 16 12 11 12 13 9 6 4 12 18 21 26 30 31 33 30 56 68 72 80 87 64 52 53 52 60 67 72 77 80 94 94 84 89 84 77 71
9 6 6 7 6 4 3 6 18 20 24 24 30 32 35 38 33 63 69 73 72 60 73 88 94 89 80 64 68 88 84 100 71 76 66 86 58 47
4 4 5 5 4 4 13 20 24 26 28 33 33 35 41 37 33 66 76 79 74 70 70 85 96 100 100 99 68 64 92 100 92 77 45 63 100 94
5 4 3 4 9 20 27 29 30 36 40 40 41 43 45 36 30 55 78 88 93 80 71 82 96 94 97 100 100 68 50 84 81 91 96 98 88 82
4 3 4 17 24 30 35 42 49 51 48 48 46 44 47 41 31 35 60 79 85 87 86 88 85 86 87 88 96 100 64 47 62 82 95 98 84 80
3 7 20 25 30 39 50 57 63 56 54 52 48 47 50 48 39 34 35 53 75 77 81 93 94 97 96 96 97 100 98 47 36 36 42 54 73 92
12 16 23 32 42 50 59 66 62 60 56 55 52 48 50 51 45 38 34 31 39 63 85 100 100 97 93 93 90 83 87 94 79 60 38 37 40 46
16 23 31 40 45 50 56 63 62 62 61 56 56 53 49 52 53 42 34 29 28 37 64 94 100 100 100 100 100 96 94 94 85 100 97 85 81 84

GFSNE_500_rhum_030.txt.gz
RH
70 96 83 55 56 68 67 63 72 56 64 81 78 84 78 66 70 68 72 72 67 55 54 58 60 56 48 41 36 31 27 25 24 23 22 21 20 19
69 76 61 97 74 80 94 97 78 71 61 68 81 86 71 78 83 76 69 56 59 67 64 52 44 39 33 30 29 27 26 24 23 21 19 18 17 16
57 66 61 64 75 89 85 89 96 74 66 78 74 74 75 79 71 62 58 67 67 52 44 38 34 32 28 23 18 13 11 10 9 8 8 7 7 6
56 62 74 97 81 96 85 86 100 68 77 78 86 90 72 69 57 67 73 55 47 42 37 30 25 20 15 12 10 9 7 6 5 4 4 3 3 4
95 61 96 95 97 97 96 92 82 88 90 87 87 67 56 67 76 58 50 47 40 30 25 20 17 13 9 7 5 5 4 6 7 8 8 9 9 9
58 95 92 98 93 98 99 98 100 100 100 98 64 58 74 63 52 48 40 32 28 24 18 14 9 7 6 6 10 12 12 13 15 16 16 16 16 16
63 89 98 96 97 97 75 86 92 99 89 61 69 69 57 52 42 33 30 24 21 19 14 8 6 7 12 14 17 18 20 21 22 21 20 19 18 18
87 99 99 98 98 99 97 100 93 69 67 73 56 54 44 33 31 29 24 20 13 9 6 8 12 14 17 23 27 29 30 33 34 33 31 31 30 28
100 90 99 100 99 99 93 65 72 68 56 51 45 37 31 31 27 21 16 10 6 7 10 13 15 18 21 21 18 17 17 21 27 33 37 37 35 32
98 99 99 98 96 82 72 61 54 52 44 41 35 33 30 27 20 14 7 6 10 15 16 10 14 11 12 16 15 16 18 18 23 30 36 39 39 37
98 95 77 85 76 51 47 44 38 36 35 36 32 27 23 20 11 5 8 11 14 18 16 9 23 22 20 17 17 19 20 22 26 31 35 39 51 62
65 70 55 49 45 36 27 26 25 24 26 24 19 18 14 7 6 12 13 16 14 15 29 36 51 48 45 63 44 36 35 36 36 40 41 46 49 47
50 45 35 25 24 23 18 13 10 8 7 8 8 7 6 8 17 20 21 19 15 32 44 37 39 43 44 46 89 77 68 70 64 54 49 46 44 44
29 26 23 17 12 10 7 5 4 5 5 5 5 5 15 22 24 27 26 22 24 43 48 38 39 52 56 55 57 73 72 67 59 80 95 99 88 58
21 14 11 8 6 4 4 5 5 4 4 5 13 22 26 28 30 33 34 24 43 56 52 40 46 62 67 66 61 65 66 100 79 59 75 78 89 95
12 10 7 4 4 6 6 4 3 5 16 25 28 29 31 34 36 36 34 27 56 78 65 50 48 65 82 83 70 55 58 72 100 97 91 90 66 62
12 6 4 4 6 6 3 4 13 22 30 33 36 40 40 42 40 39 32 27 45 70 84 77 57 67 94 98 81 69 58 65 82 75 60 72 61 65
5 4 5 6 5 3 8 17 25 30 39 44 44 45 45 44 47 43 36 29 31 44 71 66 59 66 99 100 95 84 74 58 67 88 62 60 81 82
4 6 7 6 7 12 17 24 33 43 48 49 47 46 47 45 45 45 44 36 33 32 44 60 55 62 68 80 100 94 77 72 40 42 52 84 96 100
6 8 7 9 12 18 27 36 44 46 46 49 52 50 52 50 47 46 47 40 32 28 28 36 52 70 83 87 88 100 93 78 71 67 69 66 63 71
8 8 8 13 20 27 32 37 42 48 53 54 56 56 55 53 49 45 48 46 30 23 25 25 36 75 90 89 96 100 100 87 63 46 41 42 40 46
9 10 15 24 30 35 40 45 48 53 57 58 57 59 56 51 49 45 46 46 42 30 29 24 23 79 91 88 94 88 99 100 99 95 91 82 73 66
12 16 18 31 38 45 49 51 56 59 59 65 64 61 58 53 47 46 46 47 45 38 30 18 26 92 98 95 97 100 99 100 100 100 98 94 94 97

GFSNE_500_rhum_033.txt.gz
RH
63 60 72 77 72 96 72 92 83 87 94 91 92 95 78 73 56 56 62 64 64 61 57 49 47 46 46 44 41 38 38 36 32 29 26 24 22 22
82 72 61 62 69 57 61 63 77 90 88 99 89 98 96 91 67 70 71 75 79 68 54 52 50 49 43 39 37 30 24 19 16 14 12 12 11 11
97 78 64 56 62 69 74 94 81 87 97 99 100 99 100 97 84 90 88 86 86 61 63 54 42 41 34 24 20 17 14 11 9 8 7 6 6 7
75 65 62 97 56 78 98 89 85 100 99 98 98 98 99 90 98 98 96 79 65 70 51 45 36 26 22 17 14 9 6 5 4 4 4 5 5 5
69 69 75 68 67 77 95 98 98 98 99 96 96 98 99 99 98 99 69 73 62 52 42 28 26 21 15 11 7 5 4 4 4 5 6 7 8 9
56 53 57 54 87 86 85 89 100 99 98 98 99 100 100 100 84 60 68 55 50 39 31 27 23 18 12 6 4 4 5 7 7 7 9 11 14 16
60 47 60 79 100 97 85 74 97 100 99 100 99 100 87 75 73 55 48 34 34 32 25 27 18 11 6 5 7 8 7 6 6 8 8 9 11 13
43 61 70 92 85 78 98 99 100 98 99 99 94 91 80 61 44 31 27 29 25 29 21 17 9 6 9 14 14 10 7 13 14 18 16 14 16 16
77 64 100 99 92 98 98 99 100 99 91 76 75 63 38 27 22 22 19 14 12 14 8 7 6 12 16 18 28 27 29 29 32 36 38 21 21 26
78 100 99 98 95 99 99 98 75 54 41 30 24 20 15 12 9 8 7 7 8 7 6 8 14 14 17 54 50 42 34 32 32 36 42 30 20 28
99 95 99 96 82 64 49 36 26 22 16 10 8 6 5 5 5 5 6 5 5 13 16 13 17 14 47 64 51 42 39 40 43 47 48 53 53 26
100 90 64 51 41 28 23 18 13 10 6 4 4 4 5 6 5 4 5 10 16 18 20 16 18 30 45 69 63 62 66 63 64 58 59 58 62 61
53 45 35 27 22 16 13 11 8 4 4 4 6 6 4 3 4 11 16 16 22 24 22 16 21 48 46 36 70 70 71 74 72 72 65 68 67 62
33 27 20 17 16 10 5 4 4 4 6 6 3 3 5 12 18 22 24 28 30 28 23 17 38 48 47 39 48 67 73 72 69 74 80 76 71 60
24 19 16 10 6 4 4 4 6 6 5 4 6 13 18 23 27 34 34 38 39 32 22 24 45 50 50 36 41 54 59 78 79 82 85 98 77 73
19 15 10 8 6 4 5 7 6 6 9 13 17 24 29 33 34 39 43 42 45 45 30 25 40 57 66 58 52 71 76 70 76 74 70 94 93 73
18 12 10 5 4 7 8 7 8 10 16 22 30 35 40 43 43 45 43 44 42 42 42 29 27 40 45 52 62 79 86 90 82 76 55 62 73 75
14 10 5 5 9 9 9 11 15 19 25 30 35 42 48 50 50 47 44 43 43 45 38 25 23 26 28 32 75 90 86 94 98 95 79 66 99 83
11 6 5 7 10 11 16 21 26 31 34 38 41 45 48 50 51 52 50 46 47 46 46 32 27 24 29 38 82 70 70 89 93 100 81 50 46 59
8 5 6 10 12 17 24 30 36 42 45 48 46 48 51 52 53 54 50 44 43 43 49 45 29 22 25 35 84 100 88 85 83 87 95 100 100 99
7 6 10 13 17 25 29 33 42 46 49 54 54 50 52 59 59 54 50 43 37 36 39 43 34 20 17 46 84 100 100 89 85 90 96 89 97 100
6 12 13 17 23 27 32 36 42 48 52 54 56 58 53 52 59 57 51 45 39 34 36 43 37 26 18 71 87 94 100 100 97 93 88 83 77 87
11 14 17 19 29 33 39 47 53 52 51 54 57 60 62 55 53 50 46 44 37 33 36 42 32 19 18 72 95 100 98 100 100 100 98 89 91 79

GFSNE_500_rhum_036.txt.gz
RH
93 91 86 85 85 84 81 83 91 76 69 97 97 74 84 81 93 81 95 69 65 75 81 75 67 67 64 57 55 40 34 32 30 30 28 26 22 18
100 97 85 81 80 79 94 90 78 72 93 75 82 82 98 99 86 90 83 90 78 81 84 76 70 75 76 71 49 40 37 35 35 29 20 14 12 11
89 93 98 87 96 91 96 93 72 79 61 91 98 99 91 95 99 98 97 97 99 100 94 76 82 82 69 50 43 39 38 29 19 17 15 13 12 9
79 85 86 75 68 80 80 67 62 71 84 67 99 95 98 97 98 98 98 99 98 96 91 91 71 64 61 49 42 30 22 19 18 16 12 10 8 6
63 58 71 61 59 99 63 64 55 77 90 99 98 99 88 88 96 98 99 99 99 99 85 78 67 53 40 27 24 23 22 18 14 9 6 5 4 4
51 51 58 65 58 58 56 50 48 59 68 81 88 94 89 99 99 99 99 100 98 97 82 56 38 27 26 22 19 15 9 6 5 5 5 6 6 8
67 60 70 64 51 49 77 77 60 96 99 100 100 99 96 98 100 100 98 85 50 42 28 25 20 13 12 10 8 6 6 5 6 7 7 13 27 27
75 60 51 46 45 77 93 54 76 100 100 95 92 100 100 98 88 58 31 16 10 10 7 7 7 7 7 6 6 5 8 11 9 8 25 30 29 32
85 92 99 77 100 100 100 80 94 100 97 98 90 56 37 20 16 12 8 6 5 5 5 5 6 6 5 9 17 18 16 12 11 30 30 31 36 40
95 83 66 91 90 100 99 99 94 82 52 31 23 18 14 11 7 5 4 4 5 6 6 5 4 8 18 26 25 20 15 17 33 33 37 42 42 48
52 51 74 100 99 99 86 62 38 25 21 17 11 6 4 4 4 4 5 6 5 4 4 9 19 18 24 29 24 27 32 42 38 38 47 53 56 46
78 93 100 98 84 55 32 21 17 12 8 8 6 5 4 4 5 6 5 3 6 15 15 21 25 25 26 29 44 65 69 60 47 45 54 64 74 60
89 79 55 36 28 22 18 14 11 10 7 5 4 4 6 6 5 5 9 14 18 20 22 23 30 28 23 23 47 66 73 69 52 49 56 70 74 70
38 34 30 24 20 18 15 13 10 5 4 4 7 7 7 7 11 13 16 22 25 27 31 27 26 25 22 28 47 53 63 62 49 60 75 78 84 78
30 28 26 22 19 17 15 8 6 5 7 9 9 9 10 13 16 20 25 29 33 32 33 28 26 27 21 24 40 41 50 52 60 74 83 86 92 81
30 30 23 21 18 16 8 5 5 9 11 13 18 22 25 26 28 32 36 38 44 45 39 31 29 29 24 22 28 32 37 52 75 78 90 89 91 86
31 25 23 20 15 7 5 5 11 13 18 23 29 33 33 33 36 41 46 50 52 55 53 38 32 35 37 28 24 26 38 60 79 92 94 100 84 60
26 28 20 17 7 6 7 10 15 22 26 30 36 39 42 44 45 47 49 50 53 51 45 40 37 38 39 42 27 25 28 62 91 91 91 97 100 85
32 21 18 10 9 7 10 15 24 26 28 32 38 42 48 52 52 52 55 56 55 50 48 38 34 34 34 31 30 25 46 76 87 95 94 95 100 100
28 18 12 12 8 11 16 22 28 31 33 36 40 45 51 55 57 56 52 52 55 54 52 47 36 33 32 26 20 20 43 78 83 88 100 100 100 100
32 17 12 8 11 16 19 26 32 39 44 48 52 53 50 54 57 57 58 57 51 44 42 43 39 34 32 26 26 20 38 91 85 81 93 94 97 100
22 13 9 9 17 20 23 28 39 47 55 56 58 64 62 62 59 60 60 59 57 49 41 38 35 33 36 36 25 18 55 100 98 95 92 84 86 100
14 10 9 17 22 27 30 32 42 49 54 59 62 70 60 62 64 63 59 59 57 56 48 35 33 30 40 37 22 21 79 100 100 100 98 90 90 91

GFSNE_500_rhum_039.txt.gz
RH
45 55 64 76 93 96 93 96 91 91 93 95 96 93 96 97 94 82 72 68 77 92 92 88 92 88 87 78 74 72 70 72 55 50 53 43 39 36
46 51 66 79 86 92 84 83 97 96 93 94 98 94 88 71 63 72 67 86 92 81 84 87 95 94 90 86 91 89 78 77 66 67 62 51 44 36
66 59 61 69 83 97 98 93 96 97 98 93 98 97 82 70 98 92 78 83 96 92 90 86 88 95 92 93 89 82 78 76 77 65 50 42 33 26
92 80 74 72 73 84 79 95 87 98 88 81 100 88 58 80 91 80 70 100 82 85 75 74 88 90 100 98 97 100 86 66 53 42 34 28 23 21
94 94 93 77 74 69 73 85 85 69 64 73 99 83 86 54 52 70 89 92 88 80 90 93 98 100 100 100 94 72 58 29 19 16 15 11 9 7
80 83 96 91 77 70 59 50 54 59 72 56 69 59 99 81 62 84 99 99 97 98 97 90 87 76 52 31 17 12 8 7 6 6 5 5 5 5
97 91 96 96 79 67 88 59 54 73 61 50 93 97 97 62 70 96 100 100 94 70 49 30 18 12 9 6 5 4 4 5 5 6 6 5 6 9
100 98 96 85 96 100 78 67 76 81 96 52 76 96 100 100 100 96 77 30 17 11 10 7 5 4 4 4 5 5 6 5 4 5 7 11 12 12
100 100 99 86 96 82 74 83 100 98 98 95 100 96 85 64 35 19 11 8 7 6 6 4 4 5 5 5 5 4 4 7 10 12 13 13 13 19
98 100 97 99 100 100 100 97 95 100 98 76 46 26 18 14 10 9 7 5 4 4 4 6 6 5 4 6 11 16 18 20 20 17 14 16 31 38
99 100 100 96 61 56 56 72 100 90 56 28 20 15 13 10 7 5 4 4 5 6 6 5 6 9 16 24 28 31 28 21 15 17 31 40 42 38
100 100 100 100 100 99 63 33 27 25 21 18 16 14 9 6 5 5 7 8 8 8 8 12 15 15 21 38 39 35 27 20 24 43 49 46 41 38
88 71 53 44 36 31 29 26 22 20 19 17 10 8 5 4 7 10 10 10 12 14 14 15 26 26 27 29 40 42 31 26 29 41 52 56 50 45
39 36 35 32 30 28 28 23 21 20 16 9 7 5 7 11 14 17 20 22 23 24 24 24 26 28 32 32 32 40 28 24 27 34 39 44 58 68
36 34 32 32 31 28 25 24 21 16 10 8 6 9 14 19 22 26 27 28 30 30 31 28 27 32 32 29 29 37 29 36 28 27 35 54 72 72
35 34 33 31 29 29 30 21 19 13 10 7 10 17 22 22 24 29 33 34 36 37 38 37 34 34 35 32 32 35 36 27 24 26 39 72 84 79
37 36 36 33 35 29 22 20 14 12 8 10 17 24 24 26 30 33 37 41 43 45 47 43 40 39 41 38 32 36 34 32 24 30 64 93 100 85
43 42 42 38 33 30 25 17 13 9 12 16 26 28 31 34 37 38 41 44 47 48 47 50 50 43 43 50 36 41 47 40 23 23 66 88 100 100
50 48 41 33 26 17 14 13 10 15 18 25 31 36 42 46 48 49 49 48 48 51 57 55 51 41 37 39 45 46 46 36 19 22 60 88 94 100
47 42 40 31 22 17 12 9 17 20 23 30 36 43 52 54 54 55 53 51 53 54 58 66 62 53 42 31 29 40 43 34 19 21 57 98 98 96
47 44 37 27 21 11 9 19 22 26 28 33 43 48 52 55 56 62 66 54 55 61 65 66 70 62 52 36 28 29 39 36 21 27 72 100 100 100
43 38 29 18 10 10 21 25 27 33 36 39 42 48 55 62 66 74 78 64 61 69 72 73 68 63 59 44 29 25 33 40 28 26 72 92 98 100
35 30 18 9 10 14 26 32 31 37 43 47 49 50 54 63 73 76 78 74 61 74 77 68 62 57 50 40 24 21 28 33 27 27 78 95 97 88

GFSNE_500_rhum_042.txt.gz
RH
59 59 45 53 59 66 68 77 92 92 86 87 93 79 98 100 98 98 98 97 97 82 68 64 70 71 68 78 72 60 69 66 71 66 63 61 63 63
78 79 82 72 70 76 73 76 86 93 86 90 97 96 97 98 98 97 99 96 95 72 78 99 95 82 81 85 78 72 71 65 70 70 68 68 70 67
100 100 99 99 100 100 99 81 64 69 78 98 98 97 98 97 97 96 90 84 89 60 57 65 56 54 60 77 80 76 69 60 59 73 71 75 78 71
71 100 100 100 100 100 98 97 79 64 73 87 91 98 98 98 84 99 100 95 88 92 98 60 47 39 63 84 82 86 84 89 81 83 92 96 92 92
100 100 100 100 100 100 100 100 99 92 84 84 90 82 76 96 88 100 73 62 72 68 91 63 49 56 68 86 98 96 92 81 68 65 58 44 26 13
97 96 96 97 100 100 99 100 100 96 83 79 75 66 54 45 87 78 65 63 67 94 96 90 89 89 73 60 37 28 16 13 11 8 7 6 5 4
98 90 82 86 88 91 97 100 100 98 86 82 83 91 68 92 99 97 100 98 96 79 76 52 35 16 10 8 8 8 7 6 6 5 4 4 4 4
81 93 100 88 97 98 88 88 79 96 100 86 100 80 68 100 100 99 90 64 44 22 16 9 10 8 6 6 5 4 4 4 4 4 5 5 4 4
86 84 98 96 94 100 100 100 96 99 96 97 97 97 100 97 65 34 30 19 16 14 11 7 8 6 6 5 5 6 6 5 5 4 5 7 9 12
96 99 99 100 99 100 100 99 96 91 91 92 93 78 52 45 30 21 18 12 9 8 6 4 4 6 8 8 8 8 8 8 9 10 13 18 17 15
88 98 100 97 98 100 100 92 96 100 79 37 21 19 19 19 20 18 12 8 5 4 5 8 11 12 12 12 14 15 16 17 18 21 21 16 14 19
98 97 92 95 91 86 68 42 32 28 28 26 20 19 20 21 18 11 6 5 7 12 14 18 19 19 22 28 30 27 28 26 28 25 20 18 21 31
38 40 38 37 36 33 31 31 31 30 28 26 26 23 21 15 10 7 6 10 16 19 19 22 26 24 24 29 52 43 39 40 34 30 27 22 24 30
36 36 36 35 34 34 33 32 31 31 32 27 22 20 18 15 9 8 13 20 22 23 24 26 32 32 35 35 40 51 46 41 36 34 33 29 25 26
35 35 35 36 37 38 38 38 37 35 31 28 24 19 14 10 10 16 22 23 27 30 32 33 36 39 36 36 38 46 40 44 35 32 32 27 24 26
40 41 41 42 43 44 44 39 32 27 22 19 17 11 9 12 17 25 25 28 32 34 36 36 39 38 37 37 39 40 39 30 31 31 30 28 25 26
47 46 46 45 43 41 38 35 28 24 22 19 9 11 17 18 27 31 31 33 37 40 44 44 44 44 47 47 42 39 39 34 26 25 27 28 23 24
46 45 44 43 42 38 32 22 10 9 11 9 15 19 22 25 32 38 43 46 47 51 53 54 54 54 51 53 52 44 49 31 29 27 26 29 24 26
44 44 42 40 36 28 24 10 9 7 8 12 20 23 27 30 38 46 52 55 55 56 68 69 58 48 50 58 62 58 50 40 26 24 26 30 22 39
42 40 37 36 29 26 19 13 7 8 10 17 25 28 33 36 43 48 55 59 62 68 77 90 76 56 51 59 57 65 62 50 28 24 25 24 23 45
38 36 34 31 30 25 15 8 8 10 11 16 30 34 39 45 48 49 51 57 60 64 76 96 89 66 60 64 52 45 52 52 34 22 24 22 24 37
35 32 32 33 34 24 14 9 10 11 12 16 29 43 45 54 63 64 64 63 71 72 74 81 81 73 71 65 44 30 41 48 35 25 23 24 26 33
33 34 36 37 39 26 14 10 12 13 13 14 18 28 76 85 78 75 76 78 72 69 68 60 77 75 71 55 30 30 37 38 31 25 24 27 23 26

GFSNE_500_rhum_045.txt.gz
RH
28 36 54 74 90 100 100 100 93 63 65 69 74 70 97 86 97 98 99 98 99 99 96 98 100 98 93 62 69 56 73 84 63 59 53 61 61 50
14 38 52 70 82 100 100 100 100 91 64 60 80 96 84 99 96 98 97 98 98 98 97 98 99 95 90 72 63 60 65 61 67 43 37 55 53 49
14 30 38 49 62 82 87 100 100 99 88 72 69 71 74 66 98 98 96 100 99 96 98 99 96 90 84 77 68 93 85 66 43 34 38 62 60 61
23 26 37 50 92 81 71 86 100 100 100 84 89 91 87 76 79 100 100 100 93 96 88 93 98 76 54 69 62 70 81 76 61 48 44 47 60 58
36 47 64 70 82 94 96 96 100 100 97 94 85 94 99 100 100 95 90 97 92 90 76 88 91 68 69 57 79 90 81 78 72 68 66 65 65 65
46 64 63 83 94 74 86 89 71 87 99 98 89 100 97 94 91 92 99 88 95 98 98 97 94 86 78 73 59 33 21 14 12 10 10 10 9 9
38 54 53 58 93 90 77 79 96 86 79 96 100 99 81 66 76 99 100 98 100 99 95 66 32 28 24 16 13 12 10 10 10 10 10 9 8 7
37 45 56 73 91 89 93 94 72 87 95 93 93 94 77 79 87 89 100 99 35 50 64 35 38 18 12 9 8 7 6 6 5 4 4 4 4 5
51 56 59 66 82 88 97 100 100 100 98 96 99 100 100 99 100 96 76 53 38 23 20 18 15 11 7 5 5 5 5 5 6 7 8 8 8 7
55 63 74 82 87 97 97 98 98 96 93 94 92 94 92 80 58 33 24 19 20 21 20 14 8 6 6 6 7 10 13 15 15 15 13 12 11 12
40 43 49 53 57 57 46 41 36 31 29 29 28 28 28 28 27 24 21 20 20 20 17 13 8 8 12 15 17 18 20 19 19 19 20 20 21 21
22 22 22 23 25 27 29 31 32 33 35 35 33 31 30 30 31 26 21 20 21 18 11 8 10 16 20 21 22 24 24 22 22 22 24 25 24 24
26 28 30 31 33 35 37 38 38 38 38 39 38 36 34 29 24 20 18 17 12 9 9 14 20 20 22 33 36 34 32 30 30 30 30 29 29 24
36 37 39 39 39 39 40 39 40 39 40 37 34 30 24 19 18 17 14 11 12 14 20 23 25 24 27 34 47 46 40 42 44 42 41 40 34 28
43 43 42 42 41 41 40 39 38 38 34 26 15 8 7 6 7 9 12 16 18 25 29 28 28 30 32 35 41 53 43 47 47 46 42 41 34 30
40 41 40 39 37 36 34 32 32 29 22 20 12 9 8 7 8 13 18 21 28 34 37 38 39 38 36 33 36 51 55 49 58 46 37 38 36 32
42 42 40 37 34 31 27 27 27 25 22 17 13 8 8 9 11 16 21 26 33 42 51 52 51 47 43 49 48 41 54 61 54 50 44 33 34 33
44 42 39 36 31 23 21 24 26 26 21 16 11 8 9 10 14 20 26 30 35 44 52 61 64 57 46 47 52 50 51 50 60 54 47 33 32 33
45 43 40 34 26 23 25 28 27 31 25 20 11 10 12 13 16 23 31 39 45 52 63 68 67 59 44 40 55 72 50 55 61 57 47 40 29 32
48 44 38 31 27 28 32 33 34 35 27 16 11 13 13 15 17 24 34 45 56 63 66 74 68 56 48 44 36 88 77 57 60 48 36 35 34 23
50 46 40 34 33 34 37 39 41 35 21 12 13 15 14 16 18 22 33 57 71 74 80 88 88 74 63 50 39 50 73 81 60 34 26 30 30 20
55 50 43 42 42 40 46 46 47 32 16 12 15 16 16 17 21 28 34 38 70 100 100 98 88 76 68 52 45 46 68 75 63 28 26 26 16 16
58 55 48 48 44 44 52 54 49 25 14 13 17 17 18 20 26 28 30 36 39 45 70 93 97 92 84 76 65 58 52 47 28 30 34 25 16 15

GFSNE_500_rhum_048.txt.gz
RH
12 10 9 7 8 14 21 22 40 58 85 100 99 100 98 93 83 88 95 88 97 98 98 98 99 96 98 99 98 98 99 97 97 97 73 67 66 64
12 11 8 10 15 28 36 33 45 58 79 92 98 90 94 97 98 88 94 96 98 98 98 99 95 97 99 99 98 98 98 91 89 80 69 54 51 57
14 11 12 13 18 19 33 51 71 76 84 60 67 96 84 97 87 91 98 100 98 98 99 100 98 98 97 95 98 96 95 96 64 59 63 60 69 72
16 15 17 16 20 24 31 55 65 67 79 86 64 100 100 97 100 96 99 99 100 93 99 98 93 95 91 91 92 92 90 84 73 50 49 56 62 67
21 20 21 23 21 22 38 54 58 66 98 100 100 89 100 100 100 100 100 100 97 100 98 92 95 85 88 89 95 92 88 83 79 71 63 66 70 65
26 28 28 31 28 27 37 52 77 78 89 96 85 88 82 97 99 99 100 95 97 87 82 100 87 90 96 94 95 86 66 69 54 46 43 41 33 28
30 33 33 37 41 34 37 58 76 89 73 82 64 69 65 71 87 94 99 94 72 72 86 86 100 76 54 63 67 69 48 30 21 18 16 13 12 12
24 36 41 41 44 53 59 62 67 69 73 67 70 73 66 78 85 92 91 92 90 86 89 85 68 43 30 21 22 20 19 16 11 9 9 9 7 6
21 32 45 40 33 39 54 59 62 75 84 81 82 82 77 78 78 80 96 90 75 64 55 19 28 16 18 20 20 19 18 14 9 7 6 5 5 6
20 18 16 15 16 16 17 19 21 22 23 24 25 25 27 30 31 28 27 28 28 27 25 20 23 25 21 20 20 13 8 7 7 9 12 15 16 16
16 16 17 19 22 25 27 30 32 33 34 34 34 34 35 35 35 34 33 34 34 34 31 26 22 19 18 16 12 9 9 13 16 17 18 18 19 19
23 25 27 29 30 33 34 35 35 34 35 35 35 33 34 34 33 31 28 21 13 8 8 11 12 11 10 10 12 17 20 20 19 21 20 22 22 23
32 33 33 32 33 34 34 33 32 32 29 29 29 30 30 25 19 14 10 8 8 8 6 8 11 12 15 21 24 24 22 22 22 23 26 27 27 26
36 34 34 34 34 35 34 31 29 29 24 20 22 25 24 22 16 14 13 9 9 8 8 11 16 18 22 31 34 31 28 30 26 26 25 27 31 30
44 43 42 40 38 36 34 32 29 22 16 17 19 22 22 23 16 14 11 9 9 10 13 15 19 22 30 36 41 49 48 42 37 34 32 31 39 40
55 52 48 43 40 37 34 32 25 18 20 21 24 25 26 24 21 16 10 9 12 14 17 19 24 28 36 45 48 60 63 58 68 60 43 39 50 53
62 57 50 44 40 38 36 31 25 24 24 26 29 30 31 26 21 13 11 13 14 18 22 23 30 36 43 52 63 73 76 76 70 72 66 53 54 63
63 56 49 45 42 42 38 34 29 27 30 31 39 43 34 25 14 12 14 15 16 21 30 39 48 51 53 61 66 72 77 74 72 56 53 44 48 66
59 54 51 48 47 47 44 36 33 34 38 42 49 47 32 20 12 15 16 16 18 21 30 46 63 65 66 71 88 97 82 82 63 56 53 41 35 62
58 54 53 53 51 51 45 40 39 45 48 55 56 44 27 14 14 17 17 20 21 28 36 45 54 73 89 85 79 100 100 77 64 54 50 37 36 51
58 58 56 56 54 53 47 44 48 54 55 62 58 39 17 14 15 17 20 20 21 26 29 37 42 44 77 100 100 100 100 96 63 50 44 39 48 50
62 58 60 61 60 56 49 50 63 62 58 67 54 27 13 13 14 17 22 21 20 28 36 42 40 37 37 39 69 88 96 96 82 58 48 42 37 24
70 66 68 68 66 62 59 63 77 72 64 66 47 18 12 13 13 16 23 25 26 25 23 28 38 54 64 49 31 30 38 58 62 56 50 31 20 22

GFSNE_500_rhum_051.txt.gz
RH
9 10 11 16 16 15 11 15 14 9 8 15 39 54 64 67 49 72 100 100 100 98 100 98 97 98 94 96 95 97 94 98 98 97 99 98 98 99
14 16 18 17 19 15 17 19 13 13 12 25 45 37 35 75 71 81 96 95 100 100 98 99 100 90 94 98 98 100 98 98 99 99 99 99 100 98
18 19 18 21 21 20 22 23 15 15 16 25 47 58 76 92 59 74 96 98 99 83 98 98 100 99 97 99 96 96 99 96 97 97 97 96 97 95
17 14 16 23 24 26 27 25 16 19 21 24 31 40 89 84 74 98 100 100 92 86 98 92 99 100 100 100 98 98 91 91 91 90 77 77 86 94
14 13 21 29 28 31 31 30 19 24 30 29 32 57 70 73 60 51 73 100 96 100 98 99 98 99 98 94 89 83 77 71 72 90 89 89 91 86
15 17 23 23 25 32 36 33 32 34 41 41 46 43 44 43 56 66 85 82 89 98 98 99 100 96 93 91 87 85 82 87 73 79 88 85 76 80
20 22 23 22 22 36 36 28 22 18 23 28 45 51 58 59 55 46 58 67 79 86 81 99 100 99 92 91 94 90 85 70 65 64 46 28 25 24
23 22 21 20 20 24 12 12 13 15 17 19 19 20 23 36 67 77 80 83 85 78 86 99 99 85 62 34 17 12 12 13 14 17 20 22 22 22
24 22 18 16 14 13 14 17 21 22 24 24 24 24 25 26 28 28 28 28 29 29 29 29 29 29 26 23 21 21 22 20 19 20 20 19 16 12
23 21 18 16 17 19 22 24 25 24 24 24 23 23 24 24 24 24 22 25 27 26 27 36 34 32 28 23 18 15 15 17 18 18 15 12 10 9
23 21 22 24 25 27 28 28 29 28 27 25 24 24 22 19 18 19 18 19 20 17 16 15 13 12 10 10 8 7 7 9 11 11 11 11 12 15
26 28 30 31 31 31 31 31 31 30 28 27 27 24 18 16 16 16 17 18 20 21 16 14 14 12 11 9 8 8 8 9 11 13 18 21 20 19
35 36 34 35 38 40 40 36 35 33 30 29 27 21 17 19 19 20 21 23 23 21 18 16 14 11 9 9 10 12 13 14 17 25 26 24 22 21
44 43 46 49 50 48 45 41 38 34 33 31 27 21 21 22 24 25 27 30 28 24 21 17 11 10 10 14 19 20 19 21 26 32 31 30 28 25
50 56 61 61 57 53 48 42 38 36 36 33 30 26 25 29 29 32 38 39 30 24 18 12 11 13 15 21 24 31 34 31 35 42 43 43 41 38
67 72 70 62 58 53 47 44 42 41 40 38 32 29 33 38 39 40 42 32 28 19 13 14 15 15 15 17 23 41 53 52 65 61 56 56 55 49
82 76 66 62 56 52 48 46 44 43 42 37 33 38 46 49 41 47 40 28 14 13 15 16 16 17 18 21 30 44 59 80 86 89 86 78 75 69
91 83 76 67 58 52 50 48 47 44 43 39 42 47 58 49 46 47 34 16 12 14 16 17 19 18 19 24 30 42 66 78 99 99 98 94 91 88
94 94 89 74 59 56 51 50 51 50 49 48 51 58 70 49 52 45 30 12 12 13 16 20 20 18 20 22 30 48 49 86 89 93 100 100 90 95
95 98 96 74 63 58 56 58 57 57 56 56 60 69 56 44 52 42 25 12 12 13 18 23 23 21 21 28 33 48 46 58 84 91 93 91 83 77
95 99 96 77 70 70 72 67 62 60 59 61 64 62 40 52 51 40 19 13 14 14 18 25 27 29 30 27 32 54 52 43 50 66 82 82 84 74
99 100 100 86 81 84 84 74 67 64 64 60 49 35 46 61 54 30 15 14 16 16 18 25 30 32 34 32 35 33 41 62 52 33 44 52 57 59
100 100 100 97 95 93 91 81 79 81 70 37 29 40 68 68 48 18 13 14 18 20 20 24 31 34 40 38 27 32 35 36 35 40 46 38 22 18

GFSNE_500_rhum_054.txt.gz
RH
11 12 13 12 13 17 17 14 15 18 20 20 17 17 18 15 32 56 68 67 57 71 60 65 100 100 98 97 97 95 95 97 96 85 95 84 76 86
13 15 14 16 17 16 14 17 22 24 24 24 17 22 19 18 26 49 50 44 66 42 73 96 94 100 100 99 98 96 96 91 88 97 96 93 97 92
18 18 19 20 20 15 16 23 27 26 29 28 22 23 21 28 20 30 37 48 86 97 100 84 86 97 96 100 100 98 100 100 100 100 94 98 100 100
22 22 24 22 16 15 20 25 21 26 33 29 27 14 14 26 35 33 39 54 60 89 98 90 87 66 86 90 85 86 98 99 100 100 98 96 77 90
25 26 26 20 18 20 24 23 21 32 31 21 10 11 12 13 18 35 46 40 50 67 82 90 86 84 100 100 100 98 98 98 94 96 97 96 83 76
32 31 26 21 20 20 22 22 26 32 14 12 13 13 13 14 15 16 26 53 61 53 46 74 87 88 85 88 89 100 96 95 97 96 99 96 88 81
34 29 25 22 21 22 20 18 23 12 13 16 16 16 16 16 16 18 23 24 29 37 55 74 73 75 72 84 94 96 100 100 100 96 92 96 89 63
30 28 25 23 23 20 18 15 14 14 19 21 21 20 20 19 18 18 16 16 18 26 30 32 34 32 30 30 31 25 19 15 13 12 15 17 20 20
34 29 25 24 20 18 17 18 20 22 24 24 24 23 21 20 21 19 16 16 15 15 15 16 14 19 21 26 29 32 34 34 33 33 32 30 28 26
34 29 26 22 20 21 25 27 27 26 26 26 26 26 26 25 24 20 18 18 18 17 17 18 18 17 17 18 16 12 12 12 10 10 10 9 8 10
31 28 26 26 28 30 31 29 30 33 34 33 32 31 29 26 25 22 19 20 20 21 21 22 21 20 22 21 19 16 16 14 13 10 9 9 8 8
34 32 32 33 36 37 35 40 42 44 42 39 37 34 32 29 27 25 23 23 25 26 26 23 23 28 29 26 23 20 16 12 11 10 10 10 10 13
42 38 38 40 42 44 50 55 54 51 47 42 38 37 35 33 31 28 26 29 32 34 23 26 33 31 26 24 22 18 14 12 12 13 15 16 17 17
59 51 50 50 52 57 64 61 56 53 48 45 43 40 37 36 33 30 34 39 42 34 26 36 31 17 11 10 13 14 14 15 15 18 19 20 23 24
77 77 66 66 70 74 70 62 58 53 50 48 45 42 41 39 36 40 43 43 44 25 33 30 22 13 10 12 15 17 16 17 16 18 21 24 25 28
71 100 97 92 88 81 73 69 64 56 52 46 45 47 47 46 45 47 47 47 40 28 36 30 22 12 11 13 16 19 19 19 26 26 24 26 32 40
60 88 97 100 99 94 90 85 71 60 53 48 49 51 53 53 53 49 46 41 28 41 37 31 21 12 12 14 20 20 20 23 22 27 35 44 52 56
78 83 85 90 98 100 99 96 78 64 58 62 59 56 57 56 55 55 40 24 35 47 44 36 18 12 13 15 19 23 23 21 22 22 26 36 67 89
79 80 82 87 96 100 100 99 86 72 74 74 75 66 63 64 68 55 26 25 53 55 50 32 14 12 15 15 23 29 30 29 26 30 29 26 34 93
92 88 88 92 97 100 100 100 97 88 84 83 79 74 73 77 66 31 26 44 58 61 42 17 11 11 16 17 23 33 34 36 32 31 31 35 27 42
96 91 92 96 98 100 100 100 100 99 97 89 83 80 79 77 33 29 42 54 64 55 18 13 12 12 19 20 23 32 40 42 36 28 32 30 35 35
99 97 97 100 100 100 96 97 99 98 95 94 95 90 80 34 35 43 57 74 56 21 13 13 15 17 22 23 25 33 39 47 47 31 25 27 28 30
100 100 100 99 97 96 99 100 100 98 99 100 99 81 35 35 37 54 70 63 19 14 14 15 18 23 26 26 28 34 37 46 49 43 36 31 22 20

GFSNE_500_rhum_060.txt.gz
RH
37 25 12 16 15 9 10 13 15 16 17 20 22 19 17 17 18 19 27 25 8 8 8 8 9 19 49 70 81 66 58 95 61 54 98 100 98 99
21 14 17 13 9 12 14 16 18 18 19 23 23 19 18 18 21 27 25 10 9 9 9 9 9 14 40 87 88 83 98 100 99 86 98 98 97 99
15 17 11 12 16 18 20 21 23 27 29 28 27 20 18 20 26 30 12 11 10 12 11 10 9 9 21 45 75 86 77 64 74 92 90 86 97 95
18 12 15 19 20 21 22 28 34 38 36 34 23 19 20 23 31 16 13 12 12 14 13 12 11 10 10 20 43 66 72 79 67 61 55 71 94 89
14 18 18 18 14 18 28 36 40 36 29 24 21 20 19 28 13 14 17 15 16 16 15 14 13 12 12 11 13 22 48 77 85 94 100 97 91 100
17 17 12 12 21 32 37 39 39 33 26 23 21 18 16 14 15 19 20 19 19 19 20 18 14 14 13 12 12 11 12 15 27 46 60 70 85 100
15 13 16 26 31 31 40 39 36 28 23 21 18 17 18 21 23 24 23 22 23 23 23 20 17 17 16 14 14 14 14 15 15 15 14 14 19 40
16 17 18 21 27 32 33 31 28 24 22 20 21 24 28 28 27 27 29 29 30 29 28 24 22 21 19 19 16 15 16 15 14 13 13 13 14 15
15 22 23 29 30 30 29 27 25 24 24 25 28 31 32 32 36 39 40 39 36 35 33 31 26 24 22 21 21 19 18 16 14 12 11 11 12 15
24 26 27 29 30 35 37 36 31 29 30 30 34 35 39 44 49 50 47 45 41 40 38 32 28 26 26 27 25 23 22 20 17 12 10 11 14 20
28 28 28 26 28 31 36 39 43 42 39 38 39 42 49 56 58 52 48 45 44 41 34 32 31 30 31 31 30 30 31 29 20 12 14 16 17 17
30 31 35 40 42 45 49 43 39 46 58 53 52 54 63 69 63 58 56 53 48 39 36 35 34 35 36 38 39 43 43 37 23 17 19 20 19 16
34 42 47 50 53 55 52 45 39 36 73 80 77 78 80 80 80 78 77 74 54 48 46 45 47 48 49 50 52 52 51 35 21 24 26 27 26 16
44 51 56 59 62 65 60 55 50 45 53 73 80 81 84 88 90 90 88 81 69 70 65 61 57 54 54 57 59 55 42 26 29 36 36 34 27 12
51 55 61 65 68 68 66 62 64 67 68 70 75 80 84 91 96 97 94 89 84 82 81 75 70 67 65 64 57 36 28 30 36 40 43 38 18 11
56 63 68 68 68 70 70 70 76 81 80 77 76 78 83 87 93 96 95 93 94 88 85 83 82 79 75 59 34 37 38 45 53 50 47 31 12 12
70 78 75 76 74 73 71 74 79 80 82 78 74 79 83 88 94 93 91 92 92 91 88 83 73 67 43 33 35 38 51 56 52 43 29 14 12 11
88 90 82 82 81 79 75 78 86 85 84 83 85 85 85 88 90 90 95 98 100 96 82 60 48 34 31 32 36 53 60 51 35 21 15 14 14 13
96 92 91 92 88 80 83 87 90 94 96 94 86 75 73 85 90 92 97 99 84 50 38 31 32 29 28 29 64 68 46 24 16 15 14 14 15 18
100 99 96 91 87 92 93 95 98 100 98 92 92 87 83 90 97 95 77 33 24 26 28 26 26 27 28 43 77 36 19 17 16 16 16 16 23 27
99 96 94 95 99 98 98 99 100 93 87 94 91 94 97 82 49 22 21 22 24 27 28 26 26 28 38 71 66 21 18 18 18 16 26 32 32 29
98 100 99 100 99 98 96 96 90 89 92 96 99 72 22 15 18 23 23 27 32 35 30 23 25 29 70 82 30 18 16 19 29 29 35 37 31 30
100 100 100 100 99 98 98 96 99 99 98 98 40 12 13 19 21 20 21 27 36 36 25 21 25 48 86 48 18 16 15 19 23 26 37 42 38 32

GFSNE_500_rhum_063.txt.gz
RH
27 25 26 27 40 22 13 16 13 10 11 18 20 21 23 26 26 26 20 18 18 26 19 8 9 10 9 8 10 18 52 74 74 73 68 62 84 72
32 34 40 43 24 14 17 12 14 16 18 20 26 29 31 32 32 26 20 18 23 24 10 10 11 11 11 10 9 10 19 51 84 100 100 100 96 95
42 47 48 22 14 17 14 15 19 18 18 20 31 37 38 34 25 21 20 24 29 12 12 11 13 13 12 11 10 9 10 16 50 65 75 100 95 81
52 52 24 16 18 16 18 16 15 12 16 30 36 36 32 26 21 20 24 21 13 14 14 13 16 16 15 13 11 10 10 11 19 52 82 81 78 73
52 21 18 19 18 18 16 11 14 21 31 39 40 35 26 20 18 17 16 13 16 17 17 16 19 19 19 15 13 12 11 11 11 12 14 30 60 65
27 20 21 21 26 16 12 15 17 26 29 34 32 27 20 18 16 15 16 19 21 22 21 21 22 23 22 19 17 17 15 13 12 12 12 13 12 11
21 23 27 30 16 16 13 21 27 28 28 26 23 21 19 18 20 22 24 26 27 28 30 31 30 29 28 26 24 22 19 18 16 15 14 13 13 12
28 34 30 21 24 19 25 28 26 27 25 24 23 24 24 24 26 28 29 31 37 41 41 40 38 36 34 33 30 25 22 19 18 16 15 14 14 13
38 39 24 27 24 30 27 27 29 30 32 32 30 30 32 30 30 32 35 41 48 50 47 44 41 40 38 34 29 26 25 24 22 20 19 18 17 16
46 34 26 30 33 28 26 28 30 34 36 33 37 43 41 38 38 41 47 53 58 56 50 47 47 44 39 34 32 32 30 29 27 28 30 29 27 24
45 32 34 41 32 30 34 40 43 45 42 37 34 38 49 53 52 53 60 68 69 65 64 64 62 52 43 40 37 37 38 39 42 40 38 35 34 33
43 44 46 40 33 38 48 48 51 46 43 40 40 36 43 62 73 76 78 81 85 89 88 84 74 58 62 61 60 59 54 50 51 50 46 42 41 42
50 48 45 38 42 52 54 54 55 52 50 45 44 48 50 57 65 71 75 78 85 92 93 93 88 82 81 79 79 74 71 69 67 61 56 55 49 33
54 49 42 41 50 53 57 56 54 56 53 46 49 55 60 62 64 66 68 70 76 84 93 92 92 90 88 88 84 83 76 68 57 53 48 34 32 33
57 55 51 52 55 61 63 60 61 59 59 55 51 55 66 71 73 71 68 72 76 82 87 89 90 92 94 94 89 72 41 35 34 30 27 28 31 37
64 60 58 59 62 77 85 71 69 68 67 64 59 67 76 76 75 76 77 78 79 81 89 89 91 92 89 66 29 23 22 28 30 27 25 27 36 46
72 69 63 61 72 83 85 79 80 79 76 66 73 82 85 86 82 78 74 68 71 79 84 85 78 52 22 19 22 24 26 26 27 28 31 48 58 54
77 71 70 75 85 94 90 89 89 84 72 77 86 91 91 86 87 87 81 80 82 82 63 27 14 17 21 25 24 26 26 26 27 44 68 63 32 19
91 86 95 100 99 99 99 92 87 82 86 86 93 90 87 86 88 87 86 86 61 19 15 21 22 26 25 32 35 28 25 27 37 73 61 21 17 17
100 100 100 100 100 100 96 92 91 90 88 92 92 86 88 93 96 94 83 22 14 21 23 25 29 30 26 26 22 22 23 37 78 65 20 16 14 17
100 100 100 99 99 100 99 97 98 96 92 91 93 97 98 100 100 81 14 17 24 28 31 32 33 30 25 22 23 26 43 69 71 26 16 13 16 23
100 100 100 100 100 100 100 100 100 100 94 92 95 94 97 100 68 14 20 28 29 32 32 34 31 30 27 24 27 29 52 77 35 16 14 14 18 20
100 100 100 100 100 100 100 100 100 98 95 100 99 95 95 29 18 31 32 32 32 32 33 31 30 28 24 22 24 28 59 45 16 14 17 54 78 58

GFSNE_500_rhum_066.txt.gz
RH
63 56 54 52 38 37 38 46 44 22 16 15 13 15 17 19 18 25 33 38 33 23 21 23 33 15 10 11 12 11 10 9 9 15 57 88 100 99
68 65 55 43 40 44 49 45 20 16 16 15 14 16 14 16 21 32 35 30 24 20 22 32 21 12 12 13 13 13 11 10 9 9 17 42 95 99
70 65 52 48 48 54 54 23 17 17 16 16 13 15 14 24 32 33 31 21 18 17 26 22 14 14 13 15 15 16 14 11 10 11 9 11 47 77
68 69 64 59 64 64 33 19 19 18 18 14 19 16 21 23 31 29 22 18 16 17 14 13 17 17 17 18 18 18 17 13 14 15 12 10 8 9
53 60 69 72 69 62 21 22 22 19 16 20 17 24 25 28 27 22 18 16 15 14 15 17 20 22 21 22 22 23 21 19 19 20 16 14 13 12
56 60 70 79 73 34 22 23 22 20 18 19 23 25 24 22 21 19 18 18 20 21 23 24 25 27 30 31 30 28 28 28 27 24 20 18 16 15
67 70 66 49 31 30 30 29 27 21 22 24 23 25 23 23 23 23 23 22 26 27 27 30 35 42 42 40 38 36 35 34 32 26 23 19 18 17
43 39 34 36 36 43 36 34 24 24 26 27 25 25 27 28 28 27 27 28 33 31 31 40 48 49 47 44 41 40 39 35 31 27 24 23 22 20
43 44 46 55 59 74 64 36 33 27 29 28 32 32 33 30 30 32 35 35 37 41 43 46 51 56 52 48 49 48 44 38 33 31 29 28 27 26
99 96 99 96 87 55 53 46 33 32 34 37 39 34 35 33 31 28 31 40 50 51 58 66 69 68 68 69 72 67 54 45 43 40 39 40 40 39
93 80 78 85 59 58 55 47 37 38 47 45 41 38 37 35 34 34 34 39 51 69 74 78 82 84 87 85 82 73 62 67 68 67 65 63 58 55
93 96 97 66 64 60 57 48 42 48 52 54 47 48 46 41 38 40 43 49 54 61 65 72 77 82 89 91 88 88 85 81 79 76 72 69 66 64
100 91 72 72 66 66 58 47 52 57 59 56 55 57 55 51 45 46 53 57 64 72 70 68 69 79 89 92 87 90 86 83 83 79 71 54 28 16
98 91 87 78 73 67 58 52 54 61 67 79 66 64 63 59 55 53 57 60 65 67 70 74 77 77 79 85 87 86 75 68 52 23 15 15 16 20
99 100 90 79 71 66 60 60 63 77 90 84 76 72 72 69 68 64 66 73 75 71 73 76 73 70 70 74 81 68 24 15 19 21 21 19 22 26
100 100 100 95 87 77 75 74 72 81 93 96 84 86 82 76 69 77 79 82 81 76 80 78 76 75 75 64 22 17 21 25 26 27 25 25 26 25
100 100 100 99 99 98 94 86 87 98 100 97 94 90 83 80 83 82 82 84 88 84 83 80 79 70 30 15 22 23 27 30 32 30 22 21 21 23
100 100 100 100 100 100 100 100 100 100 100 98 90 86 86 86 85 82 80 83 88 90 91 89 66 15 21 25 27 30 31 33 33 29 23 23 26 39
100 100 100 100 100 100 100 100 100 100 99 96 92 88 89 87 84 86 89 92 91 91 91 72 13 23 28 31 30 31 33 33 32 28 25 25 29 69
100 100 100 100 100 100 100 100 100 100 100 99 93 94 92 94 92 91 87 83 84 92 70 14 26 28 32 32 33 28 30 30 30 26 23 23 30 53
100 100 100 100 100 100 100 100 100 100 100 100 97 99 94 93 93 93 92 85 87 45 19 29 30 31 27 22 23 29 31 31 28 23 21 22 35 41
94 99 100 100 100 100 100 100 100 100 100 99 99 100 98 94 91 93 95 68 22 27 30 31 25 19 21 30 37 36 30 25 23 21 21 29 43 20
53 56 63 68 74 93 100 100 100 100 100 100 100 100 100 99 96 97 54 27 28 29 24 20 24 41 46 44 33 20 19 23 25 26 56 43 23 17

GFSNE_500_rhum_069.txt.gz
RH
84 81 79 75 70 69 66 57 47 46 48 50 32 20 18 14 11 18 14 18 23 29 33 28 21 20 26 32 12 12 13 13 13 11 10 8 9 30
70 64 65 69 72 70 68 55 50 51 55 47 28 19 17 12 20 15 11 17 22 28 20 17 16 25 31 14 13 13 15 15 16 14 12 12 10 11
72 68 65 65 69 67 69 65 62 62 59 43 26 20 16 14 20 11 16 21 28 23 17 15 17 17 15 16 15 14 16 17 19 17 14 16 15 11
73 67 64 61 59 61 66 69 63 67 63 33 23 20 15 28 16 15 20 24 22 18 15 14 14 14 17 19 19 19 19 21 22 21 19 20 21 17
69 63 60 56 54 52 58 69 75 81 48 27 29 20 18 18 17 20 21 21 20 18 17 16 17 19 22 24 23 23 26 28 28 27 27 28 27 23
78 70 60 58 59 59 69 82 82 54 31 34 32 28 20 20 22 22 21 21 21 21 21 21 21 23 26 28 34 38 38 37 35 34 33 32 30 26
67 64 63 63 64 64 66 51 38 39 46 41 40 33 25 26 26 25 23 25 24 24 26 26 26 27 30 40 48 49 46 43 41 39 38 36 32 28
72 73 73 46 43 43 44 51 69 64 48 52 43 35 29 29 31 30 28 26 24 23 31 33 32 32 38 44 51 54 52 47 45 46 44 39 34 31
79 96 92 88 61 56 61 65 66 74 75 52 57 38 31 38 38 36 31 29 27 28 32 37 38 40 43 51 64 66 62 60 62 66 59 46 40 38
82 92 94 99 95 97 99 98 98 64 72 65 42 38 42 43 41 41 34 32 33 32 33 34 36 47 56 69 78 79 82 83 83 80 70 57 56 60
93 87 88 100 100 99 100 97 69 86 76 52 43 50 53 51 52 51 47 42 39 41 44 45 49 55 58 60 66 72 76 81 85 86 84 80 75 70
99 100 97 98 100 100 100 83 79 91 68 53 52 59 61 60 61 62 59 55 49 47 47 50 55 61 65 65 67 70 68 69 70 70 71 71 68 63
100 100 99 99 100 100 98 100 97 79 72 61 61 64 68 82 76 70 66 64 62 59 54 57 60 64 65 67 70 71 65 67 71 68 62 57 26 14
99 99 100 100 100 100 100 100 91 84 74 68 64 72 90 99 88 87 75 73 74 67 67 69 73 77 78 78 78 71 66 66 69 65 30 15 15 17
98 99 100 100 100 100 100 100 99 92 89 80 82 91 99 100 100 92 82 78 73 74 76 74 76 78 80 81 84 75 72 69 60 18 17 20 24 28
100 100 100 98 98 99 99 99 99 100 99 100 100 99 100 100 99 92 81 78 76 75 74 74 77 83 82 80 85 85 78 28 16 18 22 28 30 33
100 100 99 99 99 100 100 100 100 100 100 100 100 100 100 98 95 90 78 78 80 75 72 74 80 81 82 90 98 83 17 21 24 28 30 31 32 33
100 100 100 100 100 100 100 100 100 100 100 100 100 100 100 98 99 93 80 78 82 80 78 75 75 75 77 91 82 18 22 27 29 30 30 30 29 30
100 100 98 98 97 90 95 100 100 100 100 100 100 100 100 100 100 99 88 89 85 81 81 83 82 75 88 87 15 23 28 30 30 26 21 26 38 35
100 100 100 100 100 100 98 98 98 100 100 100 100 100 100 99 98 97 90 95 88 86 89 86 84 81 43 20 27 29 30 24 21 33 46 44 29 20
95 94 90 93 97 96 93 90 98 100 100 100 100 100 100 100 100 100 100 100 100 100 98 94 85 33 24 29 30 23 23 47 52 48 41 30 20 18
76 72 66 60 59 61 61 65 77 86 98 100 100 100 100 100 100 100 100 100 100 100 100 98 52 26 26 24 24 54 63 56 53 48 28 19 17 23
50 39 27 21 20 20 22 32 40 43 46 50 64 87 94 100 100 100 100 100 100 100 100 76 34 23 20 48 61 60 54 56 48 27 18 18 20 24

GFSNE_500_rhum_072.txt.gz
RH
89 82 73 72 72 78 75 69 67 66 71 63 53 52 56 49 42 27 20 13 18 12 10 13 24 22 18 16 17 25 19 11 12 13 14 14 11 11
90 88 81 78 74 70 64 60 62 65 70 64 59 61 62 55 42 30 20 15 21 14 14 19 24 19 15 14 19 18 14 14 15 16 17 17 14 14
91 96 91 84 78 75 72 69 68 64 61 66 62 59 73 63 39 25 18 25 18 18 19 21 21 16 14 13 13 14 16 17 17 18 19 20 18 17
96 97 97 92 84 81 76 65 62 60 60 63 63 66 80 62 34 26 24 19 22 21 22 20 18 16 15 14 13 14 18 19 21 22 24 25 23 22
93 95 93 88 80 76 74 75 66 64 66 73 89 85 79 41 35 30 23 26 24 22 21 20 19 20 20 18 19 20 22 23 24 29 31 31 30 28
61 57 64 71 67 70 70 71 69 74 86 90 90 76 61 47 40 32 32 28 25 23 22 22 23 22 21 21 22 24 26 32 40 44 43 40 38 35
52 62 66 67 70 71 67 61 58 56 56 49 51 58 65 54 49 36 38 30 28 27 28 26 26 27 25 26 28 28 30 36 46 50 49 46 43 41
42 56 58 55 58 81 82 79 63 49 52 58 86 96 79 64 46 58 36 34 33 29 31 28 28 28 29 30 35 35 36 41 48 55 57 52 49 50
54 61 65 58 67 89 100 93 78 70 75 91 96 70 91 59 80 44 41 46 42 36 33 32 32 30 31 32 36 37 45 56 67 72 72 71 72 74
64 72 71 90 82 85 95 93 98 94 91 86 97 97 92 93 53 49 53 54 45 43 41 38 39 38 38 40 41 44 49 53 60 66 73 79 84 85
80 87 86 96 100 100 100 100 90 100 100 100 90 100 98 67 59 63 65 60 58 58 55 51 47 45 45 46 50 53 57 60 64 65 66 71 75 76
97 96 98 100 100 100 100 100 100 100 100 96 93 100 88 72 68 68 70 74 91 77 68 68 63 60 56 56 58 59 59 58 60 62 64 64 66 68
97 97 99 100 100 100 100 100 100 100 100 100 100 100 93 76 76 83 84 91 98 96 86 77 73 69 64 63 68 68 66 66 65 66 65 64 63 61
100 99 100 100 100 100 100 100 99 99 100 100 100 100 95 84 84 89 95 100 100 99 91 84 76 73 70 70 71 72 73 73 71 70 71 69 66 66
99 100 100 100 100 100 100 100 100 100 100 100 100 97 96 97 95 95 98 100 99 94 88 78 74 75 73 72 74 69 72 73 75 70 72 74 74 34
97 100 100 100 100 100 100 100 100 100 99 99 100 100 100 100 100 100 100 100 98 92 81 75 75 74 72 73 84 82 75 74 68 70 85 83 25 19
100 100 99 97 100 100 100 100 100 100 100 100 100 100 100 100 100 100 100 100 95 85 85 79 74 70 70 76 87 85 82 77 68 71 78 22 21 26
100 97 97 100 100 99 98 97 98 98 97 100 98 99 100 100 100 100 100 100 98 95 90 83 80 77 74 82 88 98 95 83 81 72 20 22 28 30
100 100 100 98 95 98 100 99 99 96 94 95 97 95 100 100 100 100 100 100 100 99 92 92 90 82 85 94 94 92 90 85 55 22 28 29 29 23
96 96 100 100 100 100 97 88 80 93 100 99 94 92 99 100 100 100 100 100 100 100 100 99 98 98 96 100 100 100 93 47 22 27 29 23 34 55
99 100 97 99 97 97 96 94 88 76 67 61 60 66 78 94 100 100 100 100 100 100 100 100 96 100 100 100 100 100 77 31 24 23 28 52 56 38
100 99 90 77 63 57 54 48 33 24 22 25 33 39 42 47 61 64 65 66 83 100 100 100 100 98 99 94 100 92 38 24 22 42 56 46 30 38
77 66 62 56 46 24 22 22 27 31 34 38 43 45 45 44 43 46 83 100 100 100 100 100 100 100 100 100 100 60 25 46 67 64 48 32 35 40

GFSNE_500_rhum_075.txt.gz
RH
94 92 93 92 93 87 88 78 75 71 70 64 60 61 70 68 63 58 61 65 56 35 25 17 20 16 15 25 21 16 13 17 21 12 10 13 14 14
82 84 85 88 94 85 82 80 86 82 76 72 69 66 64 66 68 66 62 69 58 39 26 20 20 16 23 23 18 15 14 18 13 11 12 14 16 17
78 80 85 81 88 100 99 93 94 93 88 80 78 74 67 72 77 77 75 81 62 35 27 24 20 21 24 19 16 14 13 12 12 13 14 14 16 19
96 94 97 98 97 92 95 97 100 96 89 87 74 73 77 69 80 90 95 90 68 41 25 23 24 22 20 17 16 16 14 14 14 16 18 18 18 20
85 80 74 66 68 72 72 78 91 85 75 76 75 74 68 72 83 99 98 96 63 37 30 48 25 23 20 19 20 20 20 19 20 20 22 24 28 32
40 40 36 32 37 40 49 62 71 75 74 74 73 68 66 77 77 86 83 79 53 41 56 34 26 24 24 24 24 24 24 24 24 25 30 37 44 45
22 24 27 29 31 34 46 64 71 69 77 76 65 69 56 60 85 83 88 87 78 57 68 34 32 32 32 30 29 28 29 29 30 30 34 41 48 52
32 33 37 45 50 49 49 54 59 64 96 88 75 70 68 68 81 94 99 92 68 88 45 43 41 37 35 32 30 30 32 33 35 37 42 46 48 56
49 56 62 54 51 60 64 76 69 72 98 100 94 90 82 97 100 87 82 83 96 60 51 54 46 41 37 34 34 34 34 34 36 37 40 49 57 66
67 66 60 57 55 67 78 88 96 98 100 100 100 98 100 100 98 96 96 99 79 58 63 61 56 50 45 41 40 41 42 44 46 48 50 52 56 62
64 70 71 69 74 84 95 98 98 98 100 100 100 100 100 100 96 97 98 86 73 81 78 75 72 67 61 55 51 50 50 50 53 55 55 54 58 63
68 75 77 78 82 96 95 94 100 97 100 100 100 100 100 98 99 100 100 92 83 95 87 84 89 85 78 72 66 65 62 60 60 62 63 63 63 63
81 81 89 90 93 94 96 98 88 100 100 100 100 100 99 99 100 99 100 98 97 100 100 99 100 100 98 93 78 70 68 64 65 68 69 73 75 73
82 92 91 85 100 100 93 88 98 100 100 100 100 100 100 100 99 99 100 99 98 99 100 99 99 100 97 87 77 69 65 63 65 65 68 76 77 74
86 90 85 92 100 98 100 100 100 100 100 100 100 100 100 100 100 100 100 100 100 100 100 100 100 100 98 84 71 65 63 64 67 66 72 77 76 78
97 89 77 88 99 100 100 100 98 100 100 100 100 100 100 100 100 100 100 100 100 100 100 100 100 100 97 84 78 70 57 58 60 62 75 80 78 80
98 100 95 90 97 96 98 96 100 100 100 98 99 98 98 97 94 98 100 100 100 100 100 100 100 100 100 99 99 95 82 73 61 63 70 86 90 83
100 96 96 100 100 100 100 100 100 100 100 98 96 93 90 93 96 100 93 99 97 94 99 100 100 100 100 100 100 100 100 95 83 84 80 81 91 81
100 97 86 84 86 91 100 100 100 100 100 99 100 92 94 97 97 96 95 99 100 98 97 100 100 100 100 100 100 100 100 97 98 91 83 79 99 96
97 95 98 98 99 100 100 98 98 98 100 96 92 91 90 78 70 65 66 76 78 82 87 91 90 90 98 100 100 100 99 99 99 98 86 81 94 50
100 100 100 100 98 97 100 100 99 92 86 72 61 51 32 24 26 29 30 34 36 39 42 48 56 70 77 84 100 100 100 100 97 97 90 93 87 40
100 100 97 100 100 100 88 68 61 55 34 24 22 22 25 31 34 36 40 43 45 48 44 45 60 70 87 100 100 100 100 100 99 95 98 100 72 31
100 100 100 100 94 78 76 64 29 25 24 24 26 24 22 22 21 19 26 42 51 48 52 69 86 92 97 99 100 100 100 100 99 98 99 81 64 64

GFSNE_500_rhum_078.txt.gz
RH
71 68 69 77 79 79 81 74 72 74 78 81 86 86 86 83 79 76 73 70 70 73 77 81 72 74 37 21 21 15 22 21 15 15 19 16 10 11
84 92 85 81 71 68 72 78 86 78 78 83 89 90 88 91 90 79 77 79 80 87 91 92 90 63 36 24 19 20 22 17 14 17 15 12 12 12
87 80 89 90 82 83 84 89 95 92 90 85 84 93 100 95 87 87 83 76 88 90 93 90 88 81 49 24 23 23 19 15 15 14 12 13 14 14
32 38 64 86 96 90 86 79 73 72 80 88 96 97 100 92 91 78 74 77 89 94 96 98 98 74 35 27 25 22 17 15 14 14 14 15 17 17
16 19 22 23 31 44 51 47 51 51 56 65 72 84 90 85 83 92 95 93 95 89 94 97 92 58 34 56 25 21 18 19 20 20 20 20 22 22
17 16 17 19 20 20 21 24 27 32 38 43 54 69 74 70 70 66 64 61 76 93 100 100 87 42 83 38 25 23 24 24 24 23 24 24 25 27
31 36 40 35 31 31 31 32 36 48 48 51 55 57 57 79 77 76 70 61 77 100 100 98 96 91 69 34 32 31 30 31 30 30 30 29 30 32
41 46 46 41 37 34 39 50 52 42 50 61 71 75 72 85 95 97 83 87 97 88 96 99 97 91 52 51 45 42 41 39 38 38 36 35 36 40
34 39 41 42 44 49 52 51 54 56 53 69 82 92 88 89 94 100 100 100 100 100 100 97 100 72 66 58 50 45 45 43 41 40 40 38 39 44
30 38 42 44 50 58 64 68 61 64 77 87 93 100 99 89 100 100 100 100 100 100 100 100 91 81 78 67 60 55 52 48 47 47 47 47 50 52
32 40 40 45 56 62 68 72 74 77 90 85 86 82 91 99 100 100 100 100 100 100 100 100 100 100 94 86 79 73 68 64 60 53 52 53 55 56
36 42 44 49 62 78 75 80 79 86 82 85 100 98 99 100 100 100 100 100 100 100 100 100 100 100 99 100 98 98 98 99 93 72 65 62 61 61
47 48 51 57 73 77 75 82 86 87 93 93 98 85 99 100 100 100 100 100 100 100 100 100 100 100 100 100 100 100 100 100 97 86 69 61 59 60
56 57 61 67 75 80 88 87 79 94 95 94 90 94 90 99 100 100 99 100 100 100 100 100 100 100 100 100 100 98 93 89 82 70 63 61 62 64
66 71 74 78 83 93 91 94 100 94 92 98 100 100 100 100 98 96 100 100 100 100 98 96 89 89 95 95 100 100 98 92 84 72 65 64 62 62
76 81 90 95 96 100 94 89 94 100 100 100 100 100 99 99 100 98 90 88 96 97 95 95 94 93 97 96 100 99 99 96 92 86 78 73 66 66
72 81 99 96 99 100 92 100 100 100 94 86 88 94 96 97 97 98 98 96 92 87 93 96 97 97 96 96 99 99 96 98 90 90 97 98 96 90
97 100 100 100 100 100 94 91 90 87 84 82 92 100 100 100 100 100 100 100 100 96 91 93 97 97 95 98 99 100 100 99 91 93 93 98 100 100
100 100 100 100 100 100 100 98 91 93 91 100 100 98 96 97 94 90 93 93 86 70 68 73 82 82 86 97 98 100 100 96 98 97 92 96 100 100
100 100 100 100 100 100 100 100 100 99 100 100 100 98 94 87 74 59 49 35 23 21 22 24 24 26 33 39 46 49 42 47 56 68 74 84 100 100
100 98 100 100 100 100 100 100 100 100 100 98 78 62 59 49 28 23 21 19 19 19 21 23 30 36 43 46 49 46 46 66 68 70 90 92 95 94
100 100 98 99 100 100 100 100 100 100 84 67 67 38 25 24 23 18 12 9 10 11 12 13 15 18 34 46 47 56 79 82 81 82 81 82 98 100
100 100 100 100 100 100 100 100 100 97 92 75 26 26 25 19 10 10 14 14 13 13 17 25 30 43 74 89 98 100 100 100 96 92 98 90 96 100

GFSNE_500_rhum_081.txt.gz
RH
78 91 77 60 59 59 58 58 60 65 54 55 62 76 82 88 94 100 98 96 98 95 90 92 94 96 93 96 93 79 58 23 17 24 21 15 16 24
48 56 56 68 80 68 62 62 60 62 57 56 56 75 87 86 96 100 100 100 99 94 92 97 97 100 98 94 92 66 44 28 24 24 17 16 22 15
40 53 43 57 65 47 29 40 49 55 75 79 81 77 81 92 100 100 100 100 96 93 95 94 95 91 91 96 92 91 46 28 26 20 16 19 16 12
12 13 13 14 14 14 14 15 16 17 24 32 32 34 48 65 76 83 84 90 94 97 98 98 96 96 94 98 98 84 42 29 22 17 18 18 15 16
17 17 16 15 15 15 14 16 16 17 18 20 24 28 29 30 33 38 56 67 69 69 68 78 90 98 100 100 94 81 33 34 21 18 16 15 15 17
18 15 13 14 17 20 25 25 26 30 28 29 31 33 38 40 46 48 48 48 46 66 76 67 82 98 100 98 98 43 92 32 22 21 20 21 22 22
10 16 21 22 22 24 30 37 41 39 36 33 38 46 37 44 52 64 59 57 84 88 97 82 96 99 97 97 58 98 63 30 28 29 29 28 28 28
21 27 30 27 23 24 30 36 40 41 45 46 48 49 55 46 59 60 73 76 91 100 100 100 100 100 100 100 98 67 48 42 40 39 36 35 34 34
28 33 33 31 28 26 24 31 36 40 47 52 59 55 60 78 78 87 100 97 93 100 100 100 100 100 100 100 93 89 77 65 61 55 50 46 42 42
32 30 30 30 30 28 28 30 36 46 53 58 65 66 69 83 96 83 91 100 96 100 100 100 100 97 100 100 100 99 95 70 60 56 54 54 48 46
38 42 38 35 33 30 30 35 38 50 59 62 71 70 78 83 96 86 91 100 87 100 100 100 97 100 100 98 98 98 97 84 72 63 59 57 56 52
44 42 42 35 33 35 39 43 44 58 62 68 73 80 87 89 92 83 91 100 100 100 100 100 100 100 100 99 100 99 98 96 96 91 82 86 93 89
49 42 38 42 43 48 50 50 55 61 70 78 90 81 88 83 79 76 77 88 100 100 100 100 100 100 100 100 100 100 100 100 100 100 100 100 100 99
44 48 50 52 56 58 61 60 70 68 79 86 81 75 78 72 85 92 92 99 100 100 100 100 100 98 95 99 100 100 98 96 99 100 100 99 97 91
55 52 53 56 65 72 75 79 87 80 86 88 78 79 76 82 93 97 100 100 100 100 100 100 99 98 96 92 92 90 96 100 100 100 100 100 98 94
54 56 62 62 70 74 81 100 94 90 94 87 82 91 95 90 92 95 92 89 92 97 100 97 95 94 92 92 94 91 93 93 90 92 100 100 100 99
60 68 76 78 80 79 92 100 99 100 100 96 97 97 95 90 91 91 92 95 99 100 100 100 98 95 88 86 89 88 88 86 87 98 100 100 100 100
81 78 77 78 87 95 100 100 100 99 100 98 97 97 98 96 93 95 94 95 94 94 94 91 85 82 75 66 73 76 79 73 78 89 96 100 100 98
96 88 93 88 82 94 100 100 100 92 100 99 98 91 88 95 100 97 96 94 86 84 80 71 42 24 21 20 19 21 19 18 28 35 44 50 66 60
89 80 86 80 88 97 100 100 100 100 97 98 98 98 100 100 100 95 85 71 54 30 23 18 13 12 9 14 16 17 17 30 40 45 46 45 45 46
89 83 89 94 100 100 100 100 100 100 100 100 100 100 100 100 72 63 46 26 24 20 12 9 12 13 13 12 13 17 18 20 25 37 51 52 53 70
94 95 97 95 100 98 100 100 100 100 100 100 100 100 89 75 72 32 27 26 18 10 14 14 10 10 13 17 20 26 28 35 56 90 95 93 98 100
99 100 100 95 100 100 100 100 93 98 100 100 98 96 91 86 30 29 28 12 12 15 11 9 9 10 14 20 29 34 34 36 52 72 84 84 98 100

GFSNE_500_rhum_084.txt.gz
RH
94 93 77 52 50 48 65 70 62 66 55 49 45 46 50 52 55 58 59 62 80 90 99 100 97 97 99 100 99 98 98 98 95 74 40 25 22 26
43 41 32 20 15 18 15 12 15 17 18 14 16 20 26 40 53 62 77 77 80 83 94 96 95 96 96 97 100 98 98 94 94 74 37 28 28 21
39 25 11 12 11 12 13 14 14 13 13 13 13 14 14 14 16 22 24 35 44 60 73 75 70 81 92 93 97 98 98 98 95 82 78 30 24 18
12 11 12 13 13 16 16 15 14 12 12 12 12 13 14 14 14 16 19 23 28 33 34 60 78 80 77 94 98 100 100 98 99 75 35 34 25 27
12 14 15 15 17 14 9 8 9 13 17 21 25 26 27 26 25 25 27 31 40 39 44 46 54 58 67 91 100 100 100 100 92 71 43 67 32 33
15 14 14 14 9 7 8 10 15 17 16 16 20 24 28 30 28 28 35 37 42 47 53 56 57 84 87 82 100 99 100 99 99 49 46 28 26 24
17 20 14 9 8 9 10 16 24 22 21 19 21 29 36 36 39 45 46 50 44 52 64 66 67 100 92 100 100 99 100 98 71 92 80 30 24 22
21 17 10 10 10 10 14 22 23 24 25 25 21 25 29 37 46 51 52 55 62 68 70 75 100 87 100 100 100 100 99 96 100 88 47 34 33 32
23 14 10 14 16 20 24 26 24 25 27 24 20 22 36 44 50 58 61 70 75 74 73 93 98 100 100 100 100 100 100 98 92 81 65 50 42 41
19 15 18 19 20 27 28 28 29 30 29 24 23 27 44 48 56 65 74 80 86 86 88 100 81 97 100 100 99 100 99 96 99 96 85 74 63 55
19 19 24 26 27 31 34 36 35 32 27 26 27 33 48 53 62 64 72 78 85 85 78 91 85 100 100 100 95 100 100 98 100 99 86 71 67 68
24 24 30 23 33 44 43 41 36 32 30 35 33 46 56 59 69 76 77 74 77 76 74 87 99 100 100 99 100 100 100 100 100 100 98 88 79 73
30 28 27 33 46 39 32 31 36 42 45 49 49 63 63 70 78 71 72 69 71 76 81 82 87 92 95 100 100 97 100 100 100 100 100 100 100 100
36 33 35 34 36 36 37 42 48 54 59 61 74 78 73 83 75 71 71 74 76 72 72 78 88 98 100 100 98 91 92 100 99 99 96 94 97 100
45 37 34 34 43 47 47 52 56 63 70 74 88 88 88 89 82 74 70 64 72 82 90 96 97 94 96 99 96 95 97 93 91 90 91 96 98 100
47 38 36 45 49 51 53 61 59 64 72 92 100 99 88 86 81 79 73 76 80 84 85 86 86 89 92 95 97 95 90 91 90 94 97 98 96 96
43 47 51 52 54 55 59 69 74 80 83 100 100 100 97 91 96 94 86 86 90 91 92 92 90 93 98 100 96 87 79 72 73 85 90 88 83 80
49 56 58 60 62 62 63 68 73 90 92 100 100 100 99 100 98 95 96 95 93 93 92 88 85 87 91 89 84 69 44 30 27 31 37 49 54 56
57 61 63 67 67 67 77 81 68 80 99 100 97 100 100 100 99 99 95 94 89 88 93 92 88 85 74 46 27 18 11 10 11 12 12 13 20 20
64 66 71 72 69 73 72 72 82 84 100 99 92 99 100 100 99 98 94 90 96 88 71 62 39 27 21 14 9 12 13 11 10 10 12 14 17 18
69 78 80 72 68 72 79 84 94 93 100 100 94 100 100 100 98 96 98 100 78 66 48 26 24 17 10 13 12 9 8 8 10 11 14 17 20 24
90 97 86 70 73 77 71 89 100 100 100 100 99 100 100 100 100 100 100 90 80 60 27 25 14 12 15 10 8 7 7 8 8 8 10 12 19 31
100 100 88 75 80 87 94 98 100 100 100 92 94 99 100 100 100 100 99 92 74 32 30 16 12 15 10 8 9 10 11 12 13 17 18 16 18 38

GFSNE_500_rhum_087.txt.gz
RH
96 96 96 97 94 94 91 82 65 51 37 20 16 13 10 10 10 10 10 11 11 12 15 19 32 52 71 85 87 92 97 95 100 98 99 98 98 59
86 89 90 76 56 46 34 26 16 10 9 9 11 12 12 11 11 11 11 12 13 12 13 13 17 22 21 25 42 57 88 96 96 97 96 98 98 67
54 45 28 18 12 12 11 11 11 10 10 7 6 6 5 5 7 12 14 18 21 23 21 22 25 27 29 31 45 66 87 97 100 100 100 98 99 95
26 24 13 12 12 12 12 13 12 11 7 7 7 8 10 12 13 13 15 19 21 26 26 26 36 37 38 45 52 75 88 100 100 100 99 100 99 98
16 13 13 13 13 14 15 15 12 7 7 9 9 13 16 16 15 13 16 20 24 24 29 34 34 35 46 52 55 50 68 85 100 100 100 100 96 75
15 14 13 12 13 14 14 14 11 6 8 9 10 11 15 20 18 16 15 22 22 26 32 38 47 48 45 59 59 65 94 94 94 100 100 99 98 55
15 14 12 13 15 14 16 15 10 8 9 11 13 13 15 18 17 16 15 17 28 39 42 44 43 54 69 73 65 80 100 100 100 100 100 100 79 72
14 13 13 14 15 14 18 15 10 9 11 14 16 19 20 19 19 19 16 21 38 38 51 59 64 70 79 99 98 100 100 100 100 100 97 93 79 93
30 29 33 26 17 16 20 16 11 11 13 15 18 25 26 25 23 20 19 27 38 44 55 64 71 82 80 81 85 96 100 100 100 100 100 100 100 86
40 45 40 36 23 20 22 15 13 14 15 20 22 26 27 27 24 20 20 31 38 46 54 66 74 63 74 85 89 96 100 99 100 100 100 100 97 94
46 42 36 24 24 25 21 18 20 17 18 21 26 26 28 26 26 24 33 46 43 53 57 57 68 68 71 82 85 99 94 100 100 100 99 100 100 99
38 32 30 30 30 27 23 24 22 21 21 21 21 23 23 28 34 38 49 56 59 62 61 58 66 68 76 71 78 100 97 94 100 100 100 100 100 100
46 44 43 39 38 36 34 30 27 32 22 20 26 37 39 40 47 54 66 68 69 64 64 61 72 69 64 68 82 88 97 99 100 100 100 98 100 100
63 60 59 66 61 53 40 36 37 24 26 29 37 47 46 50 54 72 74 74 70 68 67 70 68 66 73 82 82 94 93 100 100 98 98 96 97 100
93 84 83 78 67 56 50 49 35 31 35 40 49 54 54 56 75 85 86 82 77 71 68 68 63 70 77 83 81 85 94 100 98 92 90 89 89 89
100 100 94 78 68 70 63 45 40 39 45 51 57 57 60 71 96 94 95 84 80 75 72 70 76 84 84 84 87 91 94 99 98 90 84 82 83 84
100 96 91 85 70 61 52 48 47 50 52 56 63 69 76 86 98 97 98 86 88 85 84 82 79 86 91 90 89 89 92 95 92 79 78 75 69 68
98 98 97 76 64 56 53 52 55 57 59 62 67 79 87 96 99 100 100 95 93 95 94 88 86 89 89 88 86 90 88 82 80 66 37 24 17 14
90 98 88 67 65 58 55 57 64 60 62 66 75 78 89 96 97 100 100 96 90 98 95 88 90 91 92 88 77 71 58 44 29 15 11 12 13 10
89 97 98 85 67 59 62 67 72 70 75 77 82 82 87 96 97 96 100 99 95 95 96 90 89 88 71 60 37 25 22 13 11 13 11 8 7 7
94 94 84 70 59 65 69 79 78 84 77 77 77 96 92 96 94 99 100 99 98 94 89 91 85 73 61 30 25 21 12 13 13 9 7 7 8 9
96 100 96 75 69 74 82 92 85 85 78 82 89 100 95 95 100 100 100 100 98 93 93 95 89 86 43 27 23 12 13 14 9 7 8 10 12 13
99 100 100 99 86 83 100 100 89 94 84 82 95 100 100 100 98 97 100 100 97 98 96 91 91 77 42 30 15 13 14 10 9 10 12 14 14 13

GFSNE_500_rhum_090.txt.gz
RH
95 97 99 96 96 97 97 96 95 89 64 42 30 18 15 9 7 6 5 5 5 5 5 7 9 12 14 16 17 18 18 31 35 64 98 93 100 99
96 97 96 95 93 82 66 47 28 20 14 12 10 9 8 6 7 6 6 6 6 7 9 10 12 16 18 19 20 22 23 30 44 69 98 100 100 100
95 96 97 64 38 31 27 19 16 16 12 11 10 9 6 8 8 8 8 12 14 13 12 13 16 19 21 24 32 31 33 39 44 67 97 100 98 99
97 86 94 92 75 40 16 15 12 12 13 13 12 9 7 8 9 10 10 10 12 14 13 13 16 20 27 34 38 38 40 44 48 46 62 75 99 100
52 62 44 34 28 19 12 13 14 14 14 15 14 12 9 9 10 10 10 9 9 13 13 12 13 18 30 39 41 47 44 54 51 60 78 73 91 100
48 48 56 30 17 15 14 12 13 14 15 16 17 12 8 8 10 10 10 9 12 14 12 13 13 23 34 41 42 50 58 70 69 80 100 99 99 97
21 19 18 16 15 16 16 13 13 15 16 16 17 13 9 9 11 11 10 11 16 19 18 15 17 22 32 42 50 56 66 88 86 100 100 100 100 100
26 25 23 20 17 15 13 13 14 16 18 18 19 14 9 10 13 12 13 17 19 20 19 18 19 29 36 49 59 62 67 83 81 90 100 100 100 100
29 26 25 25 26 25 26 24 30 33 34 27 21 17 12 13 14 13 17 20 21 21 19 19 22 33 34 60 68 68 80 81 92 99 100 100 100 100
51 45 38 36 35 38 39 39 42 37 34 29 22 18 14 15 14 14 17 16 16 16 17 16 34 38 43 54 66 67 80 70 94 93 99 96 99 100
58 58 56 56 52 49 47 42 42 39 31 26 24 20 19 21 17 19 16 16 18 23 26 33 45 48 51 60 64 59 70 72 85 78 79 98 96 97
75 62 59 55 54 51 49 45 39 33 28 29 25 26 25 23 21 18 16 26 31 34 39 50 62 61 56 59 62 68 67 72 82 91 97 100 100 100
85 77 76 75 68 56 44 40 36 38 36 34 40 36 31 29 22 26 31 40 36 43 54 56 64 67 64 64 74 72 75 95 96 84 90 96 90 86
85 87 89 80 68 60 54 53 53 57 54 56 43 40 34 29 30 37 52 47 50 67 67 68 70 73 72 73 71 77 83 82 76 82 96 100 100 98
94 93 90 91 92 97 90 81 77 80 77 67 51 47 33 39 41 51 49 58 70 82 79 72 72 70 76 73 78 80 81 83 79 81 88 90 93 94
100 100 100 100 90 93 89 96 100 88 80 66 58 46 43 44 52 58 59 71 91 96 85 83 85 86 88 85 84 84 84 86 88 85 88 92 92 85
100 100 99 90 94 96 98 92 99 93 85 72 59 48 48 55 60 70 74 83 100 100 95 96 92 91 91 92 89 88 90 92 89 93 92 86 76 71
96 100 94 93 100 100 100 100 100 96 96 68 53 56 57 60 68 77 84 93 100 100 100 100 98 96 99 96 92 86 83 83 85 88 90 83 77 61
100 94 92 88 98 100 92 88 100 98 81 61 59 64 64 68 79 82 87 97 100 100 100 100 99 100 100 92 84 81 81 77 76 76 68 54 38 17
84 84 100 100 96 99 100 84 86 90 73 64 63 70 74 79 98 86 82 99 98 100 100 100 100 100 98 87 84 67 65 56 33 26 24 14 12 12
89 94 100 100 99 95 100 100 84 86 78 86 73 80 83 85 90 93 92 100 100 100 100 100 100 100 96 90 83 70 72 43 26 24 13 13 14 11
100 93 93 97 100 100 100 100 100 98 99 88 92 88 85 86 90 96 100 100 100 100 100 100 100 100 98 91 87 80 71 53 29 18 13 14 11 8
100 100 100 100 100 100 100 100 100 100 99 96 100 90 82 83 87 100 100 100 100 100 100 100 100 100 100 99 88 79 74 57 33 15 14 13 11 10

GFSNE_500_rhum_093.txt.gz
RH
69 69 92 95 97 97 97 97 97 97 96 98 92 58 32 18 15 10 10 11 12 10 8 7 7 8 9 10 11 16 18 19 25 25 26 28 25 39
100 100 97 95 95 97 97 95 97 96 94 86 43 20 21 12 10 10 8 10 11 11 8 8 9 10 12 11 11 14 18 23 26 30 32 34 32 30
98 98 97 96 97 96 97 95 94 82 60 52 40 29 14 11 11 9 8 10 13 13 9 8 7 8 12 12 11 10 12 22 29 36 37 40 43 40
97 96 97 98 94 98 98 85 59 49 53 55 30 12 13 14 13 11 12 12 10 10 9 7 7 10 11 11 11 11 15 20 30 33 43 48 40 42
74 91 95 94 93 86 81 60 80 46 26 14 12 13 14 16 17 16 12 11 9 10 10 8 9 12 14 13 14 14 20 30 39 49 58 55 53 58
63 67 83 82 70 57 60 54 34 21 17 13 13 14 16 17 18 18 12 9 10 11 11 9 13 15 17 17 15 21 24 29 36 48 49 81 76 76
45 49 54 60 52 49 50 46 58 45 22 17 15 14 16 17 19 22 16 10 11 12 10 11 15 16 18 17 17 25 28 45 52 45 54 63 66 80
51 40 58 67 51 31 23 16 18 17 16 14 13 13 15 19 27 25 18 12 11 12 12 12 14 14 16 17 17 26 38 54 55 53 64 79 57 80
61 45 36 55 64 34 23 20 18 16 15 15 15 16 29 36 33 27 21 15 13 13 14 14 15 14 19 20 26 38 42 50 51 60 72 70 62 85
57 49 38 32 31 29 27 23 22 22 20 24 26 30 38 37 33 25 22 18 14 15 15 15 16 20 22 33 49 50 46 44 48 65 78 74 68 85
57 60 63 62 60 52 44 37 35 37 38 40 40 39 39 39 32 27 25 19 16 17 16 14 22 31 31 50 65 63 47 51 54 66 83 88 78 84
44 53 57 60 62 60 61 58 54 51 50 50 47 45 40 36 34 34 26 23 20 19 18 21 27 30 31 52 65 63 55 59 64 68 71 73 74 76
54 53 61 69 73 70 64 61 58 59 60 66 65 45 40 40 44 38 37 30 28 22 24 30 34 34 51 62 63 66 60 66 69 79 81 79 79 82
57 68 76 75 85 91 86 74 63 61 71 72 55 57 64 63 54 54 47 43 29 30 35 36 42 55 63 72 67 70 73 70 76 87 91 84 80 85
35 72 84 84 88 94 95 86 77 77 77 69 76 83 86 75 76 67 59 46 39 46 46 58 67 83 75 73 73 74 74 80 83 81 78 80 84 85
44 69 87 100 99 96 99 96 92 100 100 100 99 98 98 89 85 73 66 46 52 50 61 70 91 88 82 83 81 81 87 92 89 82 82 86 86 88
69 87 92 95 100 92 100 100 100 100 100 100 100 100 100 99 93 92 66 52 59 61 76 80 86 94 96 94 91 93 91 90 87 83 80 79 80 86
99 100 100 90 98 100 100 100 100 100 100 100 100 100 100 100 97 92 60 58 61 68 79 82 95 97 100 100 96 95 94 96 96 91 84 83 87 91
100 100 100 100 100 88 100 100 100 100 100 97 100 100 100 100 100 90 61 63 67 73 81 96 99 99 99 100 98 95 98 99 90 86 80 72 74 74
100 100 100 100 100 100 98 100 100 100 100 100 100 100 100 100 100 82 64 70 75 77 84 100 100 97 97 100 97 100 100 99 93 73 67 52 35 30
100 100 99 100 100 100 100 100 100 100 100 100 100 100 100 100 100 81 68 82 88 96 90 100 98 99 99 98 100 100 100 99 83 73 72 48 30 25
90 95 100 100 100 100 100 100 100 100 97 100 100 99 100 100 100 82 83 91 90 88 95 87 100 100 100 100 100 100 100 100 94 85 69 56 39 27
39 87 100 100 100 100 100 100 100 100 100 100 100 99 100 100 100 98 98 95 92 91 94 99 100 100 100 100 100 100 100 100 93 80 76 69 53 33

GFSNE_500_rhum_096.txt.gz
RH
96 96 94 96 80 77 89 97 96 86 90 95 98 99 96 98 86 50 19 13 12 11 11 12 12 12 12 10 8 5 7 11 10 10 14 19 21 24
96 94 96 95 87 87 88 96 94 93 92 93 100 97 95 95 54 27 20 13 12 10 10 12 14 14 13 10 6 6 7 10 12 11 14 16 22 31
100 95 90 90 98 98 98 94 97 95 97 98 99 97 94 74 78 62 43 26 12 10 11 12 14 14 13 11 8 6 9 10 12 12 15 19 23 27
99 99 97 97 97 98 97 96 96 96 96 97 95 96 90 78 79 47 15 13 14 12 11 12 14 13 13 13 8 7 10 14 14 13 17 16 22 31
98 97 98 97 97 98 97 96 92 96 94 93 93 84 73 60 36 14 14 16 17 16 16 17 13 11 12 12 8 8 12 12 14 15 20 20 29 34
90 85 86 91 93 95 97 95 90 94 75 71 66 58 44 36 17 13 15 16 17 20 24 21 11 10 11 12 12 9 11 11 14 16 22 26 40 30
64 67 72 76 64 62 84 97 88 73 62 56 52 39 17 14 13 14 15 16 17 21 27 21 13 12 12 13 13 11 12 13 17 22 27 36 40 54
64 63 63 55 54 54 54 65 54 64 60 64 49 42 44 45 25 20 14 15 18 30 30 21 15 14 13 14 13 11 11 14 20 29 30 37 46 60
57 60 64 75 80 70 54 66 99 98 89 81 62 94 56 21 25 15 14 16 30 34 29 24 18 15 14 15 14 11 12 20 32 42 37 41 47 61
17 37 56 62 74 79 51 48 82 94 92 88 70 71 81 27 15 16 15 23 35 37 32 27 22 18 17 16 14 13 18 27 48 49 40 42 44 62
9 9 26 51 56 56 55 41 48 86 98 91 73 59 36 18 16 18 25 32 38 36 32 30 26 24 19 17 15 18 23 33 52 54 41 44 49 68
11 12 11 29 64 62 63 67 55 40 38 35 36 30 23 25 32 37 38 40 40 36 40 39 35 30 22 18 20 23 29 40 55 57 49 46 52 71
9 12 14 18 34 52 70 73 72 72 68 67 64 48 42 41 41 50 49 58 65 54 55 48 42 32 27 22 23 28 41 57 57 53 49 60 55 72
8 9 10 14 18 33 57 78 85 78 75 71 69 67 64 64 66 82 88 97 80 72 68 60 53 38 32 32 27 31 53 70 69 60 55 60 72 86
8 8 10 12 20 27 36 55 67 74 88 91 82 71 64 69 80 80 99 90 92 87 79 65 53 45 40 46 38 64 70 73 73 65 59 69 84 82
28 29 22 27 39 35 76 92 96 99 100 100 100 96 88 84 94 97 94 94 100 97 84 71 59 48 53 53 66 83 71 74 68 70 71 77 80 79
65 78 100 100 98 87 82 99 100 100 100 100 100 100 100 100 96 92 97 100 100 98 95 89 60 56 62 68 86 87 82 83 81 82 84 86 83 84
51 72 100 100 100 100 100 100 100 100 100 100 100 98 100 100 100 100 100 100 100 97 98 82 62 60 72 84 94 91 90 91 90 85 83 82 80 83
32 56 97 100 100 100 100 100 100 100 100 100 100 100 98 100 95 100 100 100 100 98 94 88 69 64 78 95 100 97 93 99 96 91 84 82 80 78
25 36 75 100 99 100 92 98 100 100 100 100 100 100 100 100 94 99 100 100 100 100 98 84 69 74 86 99 100 98 100 100 100 98 91 84 82 72
20 27 37 91 100 100 100 98 100 97 100 100 100 100 99 95 99 100 100 100 97 100 100 90 82 74 100 100 100 100 100 100 100 100 96 90 75 70
11 19 25 43 94 99 100 97 100 100 100 93 89 92 100 99 100 100 100 91 95 100 100 95 89 100 100 100 100 100 100 100 100 100 100 96 81 76
12 12 20 25 67 100 100 96 100 100 100 100 100 100 100 100 99 100 99 99 98 96 97 100 100 100 100 100 100 100 100 100 100 100 100 100 95 83

GFSNE_500_rhum_099.txt.gz
RH
96 97 97 96 96 95 96 97 96 78 81 73 79 82 87 87 76 84 95 98 96 77 40 16 12 12 15 12 11 12 12 14 12 8 5 7 9 10
97 97 97 94 97 96 97 97 87 94 70 67 88 96 97 93 82 99 99 96 76 26 20 13 14 13 11 12 13 14 16 15 13 8 6 7 9 10
96 96 95 96 96 95 98 92 87 99 92 82 88 95 97 96 96 95 100 96 57 33 38 54 30 11 11 13 13 14 16 17 15 11 7 7 8 10
97 97 93 96 96 94 87 99 97 97 98 99 100 97 97 97 98 97 98 97 82 80 52 27 28 13 13 10 15 16 16 16 16 15 10 7 8 10
97 97 100 97 98 99 98 95 96 97 96 96 97 97 96 96 96 96 96 96 94 80 54 19 15 17 19 20 16 18 14 12 14 16 10 8 10 12
97 98 98 97 100 99 98 97 98 98 97 92 96 98 97 93 90 93 92 79 62 62 21 14 17 19 22 24 24 20 16 13 13 15 12 8 10 14
93 96 94 96 96 97 96 96 99 95 92 97 96 98 98 94 94 80 72 74 77 53 18 15 16 17 20 29 25 22 19 14 13 16 14 9 12 17
30 53 75 93 96 96 97 97 97 90 98 90 98 98 96 98 94 69 51 37 24 16 15 15 15 16 27 31 28 26 22 15 14 15 14 10 14 28
9 15 20 24 44 59 72 89 92 96 98 95 98 98 100 99 96 90 69 36 23 21 29 32 30 23 44 34 30 28 23 16 16 15 12 14 21 32
7 8 8 9 9 25 29 48 69 76 86 79 84 90 97 96 92 100 99 90 92 49 21 19 18 25 35 37 35 29 23 18 17 15 14 18 30 34
6 7 9 10 11 11 12 27 46 57 75 93 97 100 92 99 100 99 97 98 99 99 28 17 18 25 35 38 36 31 26 21 18 16 16 22 33 43
9 7 7 8 12 13 16 19 28 40 56 64 69 62 74 87 98 100 100 94 74 58 19 20 30 36 40 41 44 42 33 24 19 17 19 28 37 47
9 11 9 8 8 11 14 14 21 43 47 54 58 54 46 43 81 100 98 69 50 29 26 36 42 51 59 90 74 53 38 25 20 19 24 33 47 48
4 4 4 4 7 9 9 10 13 19 30 45 48 63 67 54 46 44 42 44 48 67 76 74 87 93 97 79 69 54 36 27 23 23 30 48 59 52
7 6 8 8 6 6 6 9 12 15 20 29 59 76 96 95 84 80 85 73 84 97 93 92 92 96 94 75 69 51 40 30 29 30 54 62 71 63
13 12 12 15 14 11 16 14 14 18 23 26 57 88 100 100 100 99 95 96 94 89 82 86 89 87 86 84 72 54 44 40 38 61 66 70 70 65
21 18 15 20 23 24 32 46 54 92 67 50 72 98 100 100 100 100 100 99 94 88 84 90 96 97 93 94 82 68 53 52 64 79 72 70 71 82
34 27 23 20 17 24 40 48 74 100 99 100 99 100 100 100 100 100 100 100 100 100 92 96 96 99 100 100 92 64 66 60 81 89 85 86 92 93
37 25 17 19 21 19 32 52 59 82 100 94 100 100 100 100 100 100 100 100 100 100 100 96 99 99 100 100 83 71 66 71 90 90 93 98 96 94
37 25 14 13 19 20 41 82 70 80 91 93 97 99 98 100 100 100 99 100 100 100 99 100 100 100 100 99 96 76 71 81 91 94 98 99 99 98
41 29 17 12 15 22 57 99 100 80 99 99 100 99 98 100 89 98 99 100 100 100 100 100 99 87 99 100 95 89 83 85 93 96 96 99 100 99
47 34 19 12 16 47 84 65 100 90 74 97 100 100 100 99 97 100 100 100 100 100 98 99 84 86 88 100 99 94 95 92 94 96 99 98 100 100
56 43 28 12 17 37 62 100 89 93 82 66 100 100 100 100 100 100 100 100 100 98 100 100 96 96 97 100 96 100 100 100 100 100 100 100 100 100

GFSNE_500_rhum_102.txt.gz
RH
96 96 96 98 96 94 97 97 99 94 94 100 98 98 97 88 90 83 82 75 80 75 77 84 91 92 54 20 12 12 13 12 12 14 15 15 14 14
96 96 97 97 98 95 95 96 97 96 89 92 100 97 80 70 74 84 96 86 97 89 85 91 94 93 54 20 12 13 11 12 13 14 15 17 16 16
97 96 95 96 96 97 97 97 96 96 93 81 81 85 81 89 81 82 84 93 98 97 97 95 98 83 31 23 24 23 12 10 15 16 16 17 18 16
97 96 95 97 96 97 97 97 97 96 98 94 90 84 90 92 92 91 99 98 96 97 95 97 92 68 52 48 59 39 19 14 18 19 18 18 19 20
97 97 97 97 97 97 98 97 96 97 97 96 93 96 97 96 93 96 98 97 98 96 93 97 96 83 76 79 44 23 16 21 23 23 20 19 20 21
97 97 97 96 98 98 98 98 98 98 97 96 98 97 98 96 97 96 97 97 97 97 97 98 96 90 89 64 28 16 18 21 26 27 24 22 23 24
44 43 63 86 97 97 97 97 97 96 98 98 100 91 100 99 100 97 98 95 86 96 95 94 89 76 65 60 25 15 16 19 26 28 28 31 25 25
4 5 10 14 22 31 45 80 97 99 98 96 95 98 100 95 98 99 98 96 98 97 89 75 76 82 73 59 26 16 16 17 36 43 46 30 26 18
8 7 6 5 4 8 26 43 46 53 87 97 97 96 96 99 98 100 98 98 98 98 99 94 83 56 35 20 19 19 27 26 55 58 41 31 28 18
8 9 10 9 8 7 6 9 19 35 58 54 57 84 90 97 98 97 97 98 97 98 98 98 94 93 64 39 31 74 62 40 39 39 38 42 38 18
10 10 9 9 12 11 8 8 8 10 21 39 48 64 66 84 75 89 96 100 99 100 97 99 100 97 97 98 90 37 20 23 34 39 47 53 36 18
7 8 8 9 10 13 13 10 8 9 10 14 23 41 70 77 98 100 87 100 99 100 100 99 99 98 98 90 31 19 28 36 44 55 70 60 26 19
4 5 5 5 5 5 8 13 10 8 9 11 12 18 25 47 69 87 99 100 98 95 100 98 100 97 99 68 30 33 42 55 73 76 66 47 25 20
2 2 2 3 3 3 4 4 6 11 9 12 12 13 14 25 49 61 65 77 90 76 72 78 87 85 58 54 50 50 55 79 80 72 56 44 25 23
9 13 13 11 8 8 6 6 7 6 9 10 11 16 16 21 39 51 62 66 64 55 51 45 49 49 47 65 82 89 87 84 80 68 54 36 28 28
13 14 19 15 11 15 11 9 14 14 15 12 21 12 15 25 42 42 56 77 96 91 84 77 72 74 84 85 77 70 75 84 76 71 52 45 32 44
31 25 16 18 23 24 22 15 13 13 19 30 95 100 82 51 93 97 71 98 96 100 100 99 99 94 87 78 76 84 91 85 84 77 66 47 43 65
14 14 40 46 43 36 32 26 20 17 18 24 38 96 97 88 68 98 100 100 100 100 100 98 94 96 89 87 91 95 96 94 95 88 70 52 57 78
49 76 80 67 53 46 38 31 25 19 19 21 35 55 99 100 100 98 98 100 100 100 100 98 97 100 100 100 100 96 95 90 95 95 67 61 68 86
100 100 90 69 58 49 38 28 27 26 32 29 30 36 50 84 92 78 62 86 100 100 100 100 100 100 100 98 87 90 88 89 100 88 89 80 80 89
100 100 82 63 50 34 22 16 20 55 100 62 50 21 97 96 100 94 96 84 96 100 98 100 100 100 94 92 100 99 100 100 100 97 91 88 91 94
100 100 79 62 42 25 13 13 22 99 100 100 100 85 31 81 100 100 100 100 86 92 100 100 100 100 100 100 100 100 99 98 100 98 92 98 100 100
94 100 83 62 39 16 12 17 75 100 99 100 100 100 100 68 99 66 76 100 100 100 100 100 100 100 100 100 100 100 99 94 100 100 99 100 100 100

GFSNE_500_rhum_105.txt.gz
RH
95 97 97 96 96 97 96 96 96 94 85 95 96 97 96 97 96 97 100 90 81 87 84 74 80 78 90 82 81 77 84 45 14 11 12 11 13 14
87 97 96 97 97 97 97 97 96 95 86 88 97 99 97 97 98 91 98 97 81 85 76 77 96 98 96 95 92 91 95 48 17 11 12 10 13 14
96 97 96 96 96 97 97 96 94 98 91 89 89 98 97 96 97 97 96 95 89 81 82 92 98 98 98 96 96 97 97 56 19 20 30 35 14 16
99 94 96 97 96 96 96 96 96 96 97 97 95 98 93 95 97 96 97 97 89 90 86 88 98 96 96 96 96 97 95 54 35 58 55 24 18 20
98 97 98 97 97 98 98 96 95 97 97 97 94 95 93 98 89 96 97 97 96 97 90 92 97 97 92 89 97 98 96 77 75 64 27 18 20 22
94 95 96 97 98 98 97 97 97 97 97 98 97 96 96 97 94 96 97 97 96 96 95 98 98 95 94 98 97 98 93 90 77 45 16 16 18 22
10 14 14 17 27 35 68 87 96 97 98 97 96 97 97 94 98 100 98 97 97 95 90 95 100 97 97 96 91 96 90 82 66 58 26 16 16 26
8 8 8 8 7 6 6 8 14 24 40 57 81 95 97 98 97 98 98 96 98 100 98 96 94 92 86 91 88 77 78 77 68 59 25 17 20 30
10 10 11 11 10 10 10 9 8 7 6 11 16 54 37 75 95 97 98 99 98 99 99 98 97 99 92 86 80 79 78 74 51 24 19 22 58 43
13 13 13 13 12 12 12 11 11 11 11 9 7 6 33 90 98 83 97 98 97 99 95 98 96 99 98 95 94 94 91 94 86 30 33 55 40 30
13 13 12 11 11 11 10 10 9 10 12 13 12 9 7 17 36 82 99 72 96 95 96 98 99 98 98 96 83 84 96 100 99 84 70 29 22 39
12 12 11 10 8 7 6 6 6 5 6 8 11 12 11 8 13 32 30 66 97 100 96 96 99 99 94 93 92 93 99 99 88 65 28 23 34 49
17 15 14 12 10 8 6 5 4 4 3 4 5 9 12 12 9 9 22 28 46 76 99 93 100 100 98 100 99 100 97 99 86 63 57 59 53 66
9 7 5 4 4 4 3 3 2 2 2 3 3 5 9 12 11 11 15 22 49 70 94 100 100 99 100 100 98 100 99 96 90 76 52 62 69 69
4 3 2 2 2 3 3 4 5 5 5 4 4 5 11 12 12 12 27 24 34 63 69 89 100 99 96 100 100 92 62 51 52 69 80 75 65 64
2 2 3 3 4 5 8 9 11 13 13 10 7 8 13 16 19 26 28 29 66 56 82 99 100 91 85 88 71 57 51 47 59 74 69 60 61 62
4 4 6 8 8 13 17 19 27 30 26 19 12 13 27 20 61 92 93 100 70 58 84 91 84 88 84 78 69 67 64 73 86 79 65 64 71 66
12 24 33 39 38 32 29 27 26 26 24 22 22 24 25 16 56 88 89 100 100 100 100 100 100 100 100 100 100 94 87 91 83 71 68 80 83 76
55 61 49 35 21 29 40 52 65 58 52 41 34 27 23 17 35 100 100 100 99 92 100 80 100 100 100 99 100 100 96 91 80 76 84 96 91 85
70 55 46 32 77 100 99 85 71 57 46 38 30 33 56 19 22 28 85 100 92 100 100 100 100 100 100 100 100 100 95 92 90 93 96 98 92 89
68 65 59 69 100 95 72 64 60 52 42 34 26 91 98 44 19 19 90 98 100 100 99 99 100 100 100 100 98 89 98 98 100 100 100 100 100 99
71 78 67 96 100 76 52 42 38 33 27 33 50 99 100 90 95 54 84 95 100 90 67 93 79 99 91 90 95 100 100 100 100 100 99 97 100 100
79 83 78 100 98 67 46 28 19 14 21 38 48 100 100 98 64 100 54 69 73 60 81 84 67 94 86 100 100 100 100 100 100 99 100 100 100 100

GFSNE_500_rhum_108.txt.gz
RH
64 60 80 82 87 86 96 96 90 96 94 95 95 96 95 97 97 96 96 97 98 97 93 95 90 89 96 82 78 89 95 98 98 98 96 63 18 11
55 66 82 70 85 86 82 97 96 96 94 99 96 97 95 94 96 97 96 96 98 98 97 98 98 94 82 76 84 98 100 98 97 99 96 89 27 12
60 68 85 93 99 100 98 96 97 96 93 97 96 98 96 95 96 95 95 96 96 96 94 95 95 98 90 86 88 86 98 100 97 97 98 92 36 28
72 90 96 97 100 99 97 95 94 95 96 96 97 96 96 96 95 95 96 96 95 95 95 98 100 100 92 94 95 90 92 96 96 96 97 70 57 50
97 98 97 96 98 98 98 97 98 97 97 97 96 96 96 96 96 95 94 96 88 90 92 96 98 97 97 93 90 88 90 98 91 99 94 91 78 73
99 98 97 97 97 97 98 98 98 98 97 97 98 94 96 97 91 95 96 96 95 86 89 94 97 97 97 97 94 91 95 96 99 99 100 96 83 70
61 23 19 13 11 12 14 28 19 28 41 68 76 57 82 88 96 97 95 90 90 91 92 96 96 96 96 97 89 94 99 100 99 100 100 93 78 54
10 9 9 10 10 11 11 11 10 9 9 7 6 6 8 47 41 52 77 87 95 100 100 98 95 88 86 86 87 90 92 99 92 92 81 64 60 60
17 16 15 14 13 13 12 12 13 12 11 12 11 11 10 8 12 19 51 70 54 57 96 96 98 95 98 95 94 97 99 92 90 75 68 69 68 58
19 19 19 18 17 15 13 13 13 13 13 14 13 13 12 12 11 9 11 36 87 94 81 40 70 95 98 97 100 98 97 94 84 81 81 81 77 77
44 38 32 29 26 25 22 19 17 16 15 14 13 12 11 10 10 12 11 10 13 37 100 94 95 99 98 96 98 100 99 98 96 89 90 90 79 75
41 39 39 38 36 35 34 33 30 24 17 13 11 10 8 8 8 7 10 11 13 10 13 74 97 100 98 95 95 96 97 100 97 96 80 77 75 71
43 40 36 33 30 27 24 23 22 21 21 18 15 12 11 9 5 3 4 6 11 10 11 38 96 100 99 92 99 97 97 98 96 96 85 83 85 70
40 37 35 32 28 25 22 19 17 15 14 13 12 9 6 5 4 3 3 3 8 11 13 13 27 54 96 100 99 94 98 100 97 94 91 99 93 79
40 35 30 25 23 21 18 14 11 8 7 6 6 5 4 3 3 3 3 3 8 11 14 13 26 24 65 100 100 96 96 99 99 97 99 100 97 79
31 26 18 9 6 4 3 2 2 2 2 2 2 2 2 3 4 4 4 4 7 12 33 36 51 68 61 88 100 100 100 100 100 99 98 97 71 60
4 3 2 2 2 3 3 3 4 4 4 4 4 3 4 5 6 8 7 7 24 28 94 80 99 87 99 100 100 100 100 99 100 98 96 70 55 60
3 3 4 4 4 4 5 8 12 15 19 18 16 14 11 14 25 25 17 16 12 66 100 92 99 100 100 97 100 100 98 100 96 77 71 65 68 77
5 5 5 6 11 20 33 40 38 29 26 26 29 31 34 35 37 52 98 67 22 20 79 100 89 99 100 100 100 100 100 100 99 85 72 80 82 72
7 10 24 42 50 52 45 33 33 63 67 61 50 50 48 40 35 84 99 100 48 22 60 99 100 87 70 78 99 100 100 100 100 99 92 98 86 75
32 52 60 64 55 48 40 64 95 95 88 80 70 58 48 38 34 44 60 93 84 100 100 69 100 100 100 100 100 100 96 98 100 98 99 100 91 84
55 63 71 64 56 48 73 99 84 64 60 60 51 42 33 38 94 44 100 100 99 73 100 100 97 100 95 100 99 100 100 100 100 100 100 100 94 95
70 68 67 66 52 66 98 81 52 37 42 42 39 35 31 52 99 100 67 74 100 100 100 100 100 100 100 100 86 100 100 100 100 100 100 100 100 100

GFSNE_500_rhum_111.txt.gz
RH
51 46 43 43 48 57 66 50 53 58 79 84 95 96 97 98 97 94 92 100 99 98 99 95 98 97 97 97 97 96 95 95 85 96 99 98 98 97
50 48 60 62 61 58 58 56 70 67 62 67 79 92 96 97 96 94 89 98 96 98 97 97 96 97 96 97 96 98 93 86 88 90 93 94 98 98
60 59 62 64 60 64 61 74 85 95 96 99 99 84 94 96 97 96 96 95 96 96 95 96 96 98 100 97 96 94 99 93 87 84 83 95 95 96
92 90 96 100 95 88 75 82 84 96 97 95 100 96 96 100 99 96 98 97 95 96 96 96 96 97 97 92 94 96 99 97 91 86 86 83 92 94
98 95 99 98 97 98 98 98 98 96 99 97 96 97 97 100 97 97 97 98 97 97 97 97 96 96 97 97 96 99 98 96 96 95 86 87 85 83
98 93 97 98 99 96 97 98 98 97 97 97 98 97 97 98 95 98 96 94 94 93 96 97 97 96 96 96 96 98 98 97 96 97 89 97 91 91
68 90 98 96 96 97 97 95 86 96 77 77 94 58 58 77 79 71 35 39 74 94 95 97 96 90 92 94 96 99 97 95 96 95 84 92 85 89
13 13 13 14 13 13 12 14 14 13 12 9 10 13 8 8 8 8 8 6 13 34 49 54 55 73 90 89 98 98 98 93 87 79 85 91 84 87
20 20 20 18 18 16 16 16 16 14 15 15 15 14 12 11 11 10 9 10 9 18 14 21 36 43 42 88 96 96 95 92 88 86 86 86 84 86
31 33 36 40 39 34 30 25 22 21 21 20 19 19 19 18 17 16 14 13 12 11 11 9 16 20 58 59 42 68 72 89 92 95 100 92 84 80
36 35 34 36 39 41 42 42 43 42 39 31 24 22 22 24 22 20 17 16 14 13 13 12 11 14 41 89 84 82 95 86 81 94 98 99 90 85
44 54 61 62 63 60 56 54 49 48 48 46 44 42 38 34 35 34 29 21 16 13 11 11 11 12 15 74 95 100 96 94 90 94 87 91 97 97
33 37 40 41 44 49 51 49 47 47 47 46 44 43 42 40 38 36 33 31 28 21 11 8 8 9 15 14 63 97 100 100 100 100 94 100 93 84
33 34 40 46 48 48 48 48 48 47 45 42 42 42 40 36 34 32 29 27 25 24 20 9 6 6 10 19 29 36 62 100 100 98 100 88 81 79
48 50 51 54 56 54 52 48 46 43 41 39 38 34 31 28 25 22 19 18 14 14 14 10 5 4 8 20 23 28 93 100 100 100 95 97 100 94
52 48 43 42 41 40 36 32 30 29 26 24 24 24 23 19 15 12 9 5 7 8 6 6 4 3 4 10 18 28 54 100 100 100 95 97 97 90
19 19 17 15 14 11 7 6 4 3 4 4 4 4 4 5 4 4 3 3 3 3 3 4 4 3 4 8 19 47 100 80 91 98 100 100 100 96
8 6 4 4 3 3 3 4 4 4 4 4 3 3 3 3 3 3 3 3 3 3 3 3 4 4 4 9 17 64 100 100 100 95 100 96 86 98
5 4 5 5 5 5 6 6 7 13 13 13 13 14 12 10 12 11 8 6 6 8 8 10 9 7 8 71 99 92 56 90 100 88 86 93 100 100
6 7 8 11 14 16 23 28 36 42 38 33 28 25 25 24 27 32 34 31 30 25 30 28 25 100 46 13 100 100 99 95 97 80 90 100 100 100
18 21 27 38 45 47 50 52 47 41 36 48 67 76 74 57 51 57 44 43 67 100 100 64 28 100 100 75 90 76 84 100 100 100 100 99 98 95
48 42 42 46 54 59 56 57 46 56 91 90 79 76 74 74 70 58 51 52 100 100 100 49 32 39 99 100 100 100 100 100 100 100 100 98 92 94
63 66 72 71 68 64 60 40 85 91 70 49 47 50 51 46 55 44 46 69 99 100 100 96 89 81 92 100 100 100 100 100 100 100 100 99 100 100

GFSNE_500_rhum_114.txt.gz
RH
52 69 69 77 69 71 70 70 96 79 55 46 57 63 57 60 71 91 100 97 96 95 97 90 93 100 93 99 94 96 97 97 98 97 92 88 77 75
70 64 71 62 61 59 51 55 57 55 52 52 54 56 83 74 78 73 87 95 97 92 98 96 92 87 97 94 97 96 96 96 95 90 90 88 85 79
42 50 58 56 56 70 68 60 57 64 63 60 57 60 73 91 97 93 84 88 97 96 97 97 97 93 94 96 97 97 95 95 95 93 93 93 93 88
72 73 72 72 71 69 67 78 85 93 84 74 69 65 75 85 97 97 98 99 96 96 96 96 96 98 99 96 99 96 95 96 95 94 93 93 97 92
97 97 99 98 99 98 98 96 98 100 98 84 91 98 97 97 98 97 97 98 97 97 96 96 95 96 96 96 97 97 96 95 95 96 91 91 95 96
91 96 98 97 97 98 98 97 98 98 97 96 97 97 98 98 98 98 98 97 96 97 96 98 97 97 95 94 96 97 97 96 96 95 90 96 98 98
99 98 99 98 96 95 90 96 99 98 97 97 98 99 99 98 97 98 96 94 98 99 96 94 96 93 84 92 96 94 96 96 97 98 95 99 98 98
54 87 38 17 20 17 15 14 20 23 16 39 90 87 72 92 64 51 76 83 33 77 42 27 35 57 97 88 62 76 90 97 96 97 99 97 98 98
22 22 23 21 20 18 19 17 17 18 19 21 20 20 18 17 20 23 14 10 10 10 24 13 12 22 48 33 38 30 65 88 85 94 96 98 97 99
35 35 35 36 35 34 35 34 33 35 30 27 31 35 31 28 26 23 18 15 12 12 12 14 14 10 10 13 18 44 31 54 51 61 80 95 97 95
87 80 73 67 63 58 53 53 56 55 45 35 34 36 40 44 45 41 33 26 23 21 19 15 14 14 13 12 11 13 25 40 29 35 67 76 84 95
75 65 60 57 48 38 35 35 34 34 35 40 49 52 49 48 50 49 48 47 40 36 34 28 24 20 16 14 13 12 15 20 28 42 55 70 88 88
51 37 28 26 27 27 26 24 22 21 24 28 33 41 44 48 54 53 54 52 52 48 45 45 41 34 27 20 15 13 12 12 16 30 57 70 78 89
41 43 41 39 37 33 29 28 29 28 30 30 34 40 47 52 51 51 52 50 49 49 50 45 45 44 39 34 25 15 12 12 14 13 25 67 72 100
57 54 59 61 58 53 51 48 47 47 42 44 46 46 47 48 50 52 50 51 51 49 50 50 46 43 41 36 31 18 11 10 16 16 32 35 30 96
56 52 45 44 43 40 32 27 30 33 33 32 31 30 31 32 33 36 37 38 42 44 43 42 41 41 39 36 30 24 14 9 9 43 44 100 68 54
12 10 10 10 9 9 8 8 6 6 7 8 11 11 10 12 13 15 18 17 16 15 18 21 28 28 24 25 22 21 18 10 8 16 100 100 98 58
8 7 6 5 4 4 4 4 4 4 4 4 4 3 4 4 3 3 4 5 5 4 4 4 4 6 10 9 8 9 9 8 7 9 26 55 98 99
11 8 6 6 6 7 6 7 8 10 9 9 9 7 6 5 5 4 4 4 3 3 3 3 3 3 3 4 4 4 4 5 5 10 27 97 100 100
9 10 15 19 21 24 22 18 24 34 38 36 32 28 24 20 21 18 16 16 12 9 6 4 4 3 3 3 3 3 4 4 5 11 96 100 100 100
26 40 47 41 36 41 49 45 38 45 43 38 35 33 46 57 60 49 40 40 31 32 29 18 11 7 6 6 6 5 6 6 6 18 37 100 100 98
46 44 35 32 34 42 53 54 50 41 40 73 88 83 79 77 76 80 73 75 72 43 74 49 74 34 21 40 44 31 76 34 13 23 37 80 100 99
18 18 18 20 23 26 30 49 72 78 70 51 42 44 47 50 44 56 76 55 53 88 100 100 100 100 72 46 100 100 100 16 97 100 72 99 98 96

GFSNE_500_rhum_117.txt.gz
RH
52 62 71 76 69 60 46 35 34 36 56 73 88 74 89 78 56 51 51 54 60 68 80 91 92 93 97 96 94 93 95 100 98 94 95 96 94 97
81 70 64 54 48 44 42 49 58 59 54 60 72 75 86 66 63 53 54 55 51 75 87 90 98 98 97 97 96 94 90 99 99 94 96 96 97 98
68 70 71 80 77 80 70 71 77 71 60 63 61 59 54 54 60 84 74 69 74 69 76 86 100 93 96 97 97 98 94 88 98 97 97 97 97 96
76 86 88 85 82 48 48 49 60 56 54 51 62 55 56 68 69 79 76 87 100 96 95 98 98 91 99 98 97 95 83 86 91 93 97 95 96 95
86 95 94 82 69 88 94 78 83 85 80 77 77 93 99 93 86 87 87 91 87 91 94 95 97 98 97 98 96 98 97 97 91 93 96 96 96 94
96 97 99 100 100 99 100 94 99 99 98 98 99 100 99 97 97 92 95 95 86 98 97 98 97 96 97 97 97 97 97 97 96 96 97 96 96 96
98 99 95 98 99 99 95 100 100 94 97 100 98 99 99 97 96 97 97 99 98 98 98 97 97 97 96 98 98 95 98 96 97 97 96 97 96 98
28 28 44 78 93 96 97 78 29 57 93 99 63 72 94 63 83 99 100 97 97 96 98 100 98 97 97 95 97 99 97 95 92 96 97 97 97 97
38 37 36 35 34 34 34 33 37 55 32 22 24 20 28 21 22 20 75 96 96 99 95 95 92 91 75 57 66 93 97 81 64 89 98 97 97 98
63 73 87 82 71 64 65 56 46 39 35 35 32 34 30 28 23 23 21 21 37 46 71 61 45 19 49 49 20 34 56 49 45 67 96 98 98 97
100 100 97 98 94 89 81 80 78 77 65 57 51 43 37 34 33 33 34 27 22 23 21 19 21 17 13 20 32 18 11 16 41 48 52 49 59 67
89 93 91 92 96 93 86 82 84 72 67 66 65 59 53 49 47 46 48 45 36 36 43 35 24 20 17 17 16 14 14 12 12 15 37 49 38 41
63 54 47 48 50 52 62 74 76 74 64 45 33 28 29 32 29 25 25 27 31 43 50 44 42 43 38 26 22 20 17 15 13 12 13 41 51 57
64 66 68 66 60 52 45 37 32 30 30 34 38 37 33 30 26 24 22 19 17 16 25 36 50 54 48 46 45 36 27 22 18 15 13 12 37 66
90 87 80 76 71 69 65 64 60 55 49 43 36 31 30 28 28 26 23 19 16 16 19 23 25 38 54 55 51 48 50 41 30 21 17 14 13 15
34 22 20 18 17 16 17 17 21 27 33 37 41 42 44 44 43 46 44 43 34 32 30 29 30 34 36 44 56 58 56 54 46 38 24 16 14 13
14 14 12 10 9 8 7 6 6 5 8 10 13 16 18 21 22 23 25 28 33 36 38 42 44 43 42 43 45 52 59 58 53 44 35 24 17 14
18 15 12 10 9 8 7 6 5 5 5 4 4 4 4 4 4 5 8 11 11 10 13 15 23 31 35 39 45 48 51 57 55 47 37 20 22 15
8 7 7 7 8 11 13 13 12 12 11 13 12 10 7 6 5 5 5 4 4 4 4 4 6 9 16 22 28 32 42 47 47 40 40 35 20 12
12 8 8 9 10 11 11 11 13 16 23 26 24 23 23 20 18 15 13 10 7 5 4 4 3 3 3 5 10 16 20 23 28 26 26 24 17 20
25 28 28 25 20 14 13 15 19 25 29 29 28 28 28 30 34 32 27 23 19 16 15 14 10 7 4 3 3 4 6 10 10 12 13 12 11 8
28 34 39 43 47 50 53 57 61 64 66 67 65 65 67 71 74 79 76 71 50 42 48 33 30 26 18 9 4 3 3 3 4 4 5 5 8 7
27 31 35 38 36 32 29 27 30 33 34 34 33 43 48 57 57 58 65 67 67 57 79 60 90 100 90 33 12 7 5 4 4 4 4 4 5 6

GFSNE_500_rhum_120.txt.gz
RH
96 97 97 94 88 80 80 63 45 45 54 80 88 94 90 92 92 92 95 88 71 68 62 50 50 54 50 52 71 91 98 98 98 97 97 98 95 92
65 52 53 65 63 54 50 52 54 56 49 53 57 55 48 58 75 82 82 76 84 90 60 54 51 50 55 55 60 86 86 96 98 97 97 95 97 96
46 43 43 48 45 48 48 51 62 57 46 45 48 47 48 86 92 100 92 83 86 87 74 66 55 56 58 54 55 74 98 100 97 97 96 96 92 93
53 52 53 50 51 57 55 55 68 65 61 62 67 43 63 77 97 90 95 97 94 90 72 59 67 62 59 78 75 92 100 98 98 97 97 95 99 96
82 87 88 86 83 84 96 91 89 86 74 63 52 55 55 59 62 66 68 68 68 60 60 68 80 86 96 82 91 92 92 94 98 97 95 93 95 95
89 100 94 92 98 100 94 95 98 91 80 77 86 84 80 79 60 59 63 65 71 94 93 78 80 69 93 100 94 95 91 98 99 98 96 96 96 97
22 21 22 25 48 93 97 99 96 99 99 98 97 98 95 98 95 98 94 98 95 96 99 97 92 90 95 96 95 100 96 97 97 97 98 97 95 95
35 34 33 32 31 32 32 34 60 96 98 98 100 98 97 98 99 91 98 98 98 97 99 99 91 94 94 97 99 98 98 96 96 96 96 97 97 98
77 67 58 50 45 43 42 44 40 39 42 54 44 76 76 48 46 94 91 94 98 72 84 100 94 100 99 98 98 97 98 96 96 96 94 95 96 97
97 100 100 96 86 90 93 94 97 88 62 61 54 56 46 67 79 52 52 49 70 57 23 57 99 97 98 98 95 97 98 97 98 100 100 99 97 100
55 56 55 56 65 85 95 93 95 98 92 93 89 83 72 62 54 50 42 33 31 30 26 59 31 77 96 99 97 97 94 69 55 87 94 81 77 98
61 64 59 55 48 48 49 50 53 60 74 75 74 78 79 79 76 66 55 53 45 38 44 29 29 25 50 82 90 77 58 46 41 34 78 66 62 89
62 68 71 68 65 62 59 54 52 54 52 49 54 67 74 72 70 67 70 68 66 54 57 49 43 33 27 34 46 67 64 40 28 23 15 28 50 58
78 84 94 98 94 90 90 87 80 70 58 56 54 47 42 42 47 58 64 61 58 60 55 50 47 44 46 35 30 32 27 19 18 17 23 19 17 29
52 35 24 22 22 21 22 26 34 45 51 56 61 61 59 56 48 38 31 35 46 52 52 51 41 34 31 31 38 42 44 36 27 22 19 16 15 13
22 26 18 13 11 9 8 8 8 9 9 9 14 21 29 39 46 51 48 45 33 31 29 35 43 46 38 28 23 21 29 48 46 45 35 25 22 17
25 14 14 15 13 10 6 5 5 5 6 6 6 6 6 6 9 12 23 31 38 40 40 32 26 24 30 33 29 23 19 21 50 58 54 49 35 26
16 13 16 18 17 17 14 8 6 7 7 7 6 5 5 5 5 4 4 5 8 13 21 26 34 30 24 21 19 20 19 20 28 46 66 64 56 48
15 16 19 22 24 23 24 28 22 11 9 9 9 10 9 8 7 7 6 4 4 4 4 5 10 19 30 30 33 28 27 24 32 39 47 58 67 64
16 16 18 22 27 29 30 30 36 44 43 31 21 20 21 20 20 18 15 10 8 7 6 5 4 4 7 12 20 23 28 35 37 41 50 57 63 72
20 21 21 24 31 34 34 31 25 23 32 48 54 58 61 63 64 55 48 35 22 15 14 14 10 6 4 3 5 7 11 17 25 31 38 52 58 64
26 17 19 31 37 32 29 23 16 18 17 17 27 36 47 54 57 66 69 77 73 60 49 35 25 17 14 10 6 4 4 5 9 11 20 28 42 54
19 15 19 26 24 21 22 42 50 43 41 29 16 21 34 45 51 53 56 64 64 68 76 79 61 44 51 60 31 14 7 4 3 4 6 10 19 31

GFSNE_500_rhum_123.txt.gz
RH
95 100 96 98 98 98 97 99 91 79 72 76 96 100 94 60 62 89 96 98 96 98 97 98 87 83 81 73 55 44 45 58 82 80 94 98 98 97
96 99 99 99 98 98 98 97 96 81 76 79 81 87 88 62 48 46 64 82 92 89 86 95 97 96 85 74 59 49 46 46 47 70 88 95 98 100
99 99 98 98 97 92 83 73 58 54 52 58 57 59 64 64 59 52 49 51 59 63 66 73 85 84 80 79 77 53 52 49 48 60 91 93 96 98
97 96 84 59 54 52 42 42 40 38 34 32 35 36 38 43 48 51 57 57 57 56 49 56 64 92 99 84 69 61 67 62 49 54 82 100 99 96
87 86 85 94 97 92 89 85 77 71 55 37 39 44 44 40 57 63 63 61 64 66 61 71 84 97 98 99 81 80 65 56 59 58 65 87 97 99
23 20 18 19 45 70 97 98 96 90 87 84 72 65 68 82 79 79 68 63 64 81 83 85 97 96 98 89 74 75 66 82 79 76 72 84 98 98
85 51 35 29 26 24 24 25 29 37 75 90 87 84 85 94 92 86 80 82 80 84 90 79 78 83 81 77 71 64 87 100 100 99 92 97 94 98
50 82 100 90 56 43 36 34 34 32 31 32 35 52 90 91 100 100 91 96 100 95 91 99 77 72 70 73 80 98 100 100 97 97 95 96 97 90
52 53 54 62 88 98 99 86 65 56 52 55 62 51 44 46 62 84 99 98 100 97 87 99 98 97 97 97 98 99 99 97 98 96 96 94 100 98
34 53 59 54 51 52 56 66 91 99 94 85 76 81 66 74 58 50 58 60 82 69 59 84 92 92 98 98 95 98 98 99 94 98 99 98 98 99
39 38 31 33 43 46 55 50 48 49 49 55 61 75 96 94 88 77 80 60 47 58 86 62 85 73 91 77 90 100 99 99 98 98 98 98 98 97
55 59 60 60 60 58 47 46 46 47 39 37 42 41 43 47 57 76 80 82 75 73 80 70 66 58 72 94 40 42 92 99 98 98 98 99 95 97
6 9 36 66 75 76 76 76 73 75 74 67 52 48 47 38 38 40 45 58 68 68 91 70 58 59 44 58 54 65 70 64 99 100 98 97 97 95
6 8 10 13 16 18 18 18 16 15 17 28 45 63 73 72 64 46 28 31 41 48 62 72 67 69 53 41 45 54 39 33 65 98 100 99 81 67
12 18 20 21 18 15 12 12 14 13 12 10 7 6 7 14 31 56 65 51 28 32 39 46 56 63 71 62 55 53 55 49 36 60 93 93 61 33
18 24 27 30 25 14 14 16 16 16 15 14 12 7 4 5 6 6 12 29 52 54 42 40 38 45 53 60 66 68 56 49 52 41 54 81 73 57
27 30 31 22 18 15 16 16 17 18 19 18 18 18 10 5 5 4 5 5 8 20 31 49 40 37 35 43 52 60 65 52 42 44 46 42 43 42
31 31 36 31 19 18 17 18 19 20 24 25 24 23 22 15 8 7 6 5 5 5 6 10 29 41 36 33 33 38 49 57 51 37 37 44 44 54
34 38 50 54 29 18 20 25 30 31 30 27 24 24 24 35 33 18 15 9 6 5 5 5 6 9 26 38 38 30 30 34 38 48 41 32 29 42
38 50 63 37 15 16 19 29 29 21 21 21 20 19 17 35 49 56 58 46 22 14 11 8 6 5 4 8 21 30 31 30 30 31 34 40 34 26
57 67 36 17 16 20 24 27 46 61 63 53 36 28 18 22 40 52 56 63 68 67 49 27 12 6 5 4 4 4 11 24 29 30 33 30 31 33
59 31 23 34 38 44 62 72 86 94 99 92 89 63 34 29 35 47 52 56 60 66 69 57 32 17 11 6 5 5 4 4 10 20 26 32 32 28
28 28 41 55 73 88 97 99 96 96 98 100 100 99 58 36 42 47 54 59 75 81 81 84 73 49 45 30 21 14 8 6 4 4 8 14 25 32